Biedriem

VSK Noskrien twitter
VSK Noskrien Facebook profils

Polar M400 HR
Ūdensizturīgs GPS pulsometrs ikdienas treniņiem un sportiskiem sasniegumiem.
EUR 189.00

Noskrietais


Pēdējās nedēļas skrējieni grupai
Datums Notikums Skrējējs Km Laiks Pulss min/km km/h Apavi
16/07/18 Skrējiens guntars.bumans 10.01 58:06 05:48 10.34
16/07/18 Skrējiens ricardsbalcis 7.01 43:10 06:09 9.74 ir
16/07/18 Skrējiens gar jūru Dzintars 15.02 1:24:40 05:38 10.64 ir
16/07/18 Vēls vakars Naurītis 15.00 1:24:33 132 05:38 10.64 ir
16/07/18 Īsais gar jūru ar peldi. Kaifs. Renee 5.47 32:46 153 05:59 10.02 ir
16/07/18 Tropu nakts Cassandra 12.10 1:13:01 06:02 9.94 ir
16/07/18 Skrējiens Casperr 6.64 32:16 04:51 12.35 ir
16/07/18 Skrējiens Mr.Linde 8.82 1:00:20 06:50 8.77
16/07/18 Skrējiens Azveja 10.22 1:11:55 07:02 8.53 ir
16/07/18 pēc trakās dienas svelmes ar finiša plunkšķi ezerā Lauma 10.19 58:20 148 05:43 10.48 ir
16/07/18 Skrējiens KarlisIelejs 10.11 1:03:50 06:18 9.50
16/07/18 Skrējiens Miezers 15.15 1:25:37 05:39 10.62 ir
16/07/18 Skrējiens uzzy 7.17 38:04 05:18 11.30 ir
16/07/18 Skrējiens MārcisB 6.00 36:00 06:00 10.00 ir
16/07/18 Skrējiens vaicis 15.71 1:35:15 06:03 9.90
16/07/18 Skrējiens AlteR-EgO 14.00 1:12:15 05:09 11.63
16/07/18 Skrējiens coffee 7.39 43:27 05:52 10.20 ir
16/07/18 Skrējiens ferons 10.95 1:06:38 06:05 9.86
16/07/18 Skrējiens elapins 10.02 59:30 05:56 10.10 ir
16/07/18 Skrējiens Kaspars33 10.53 52:37 04:59 12.01 ir
16/07/18 Skrējiens Andrex 5.06 29:18 05:47 10.36
16/07/18 Skrējiens kopijs 5.05 39:48 07:52 7.61 ir
16/07/18 Skrējiens sominens 3.54 21:10 05:58 10.03 ir
16/07/18 Skrējiens sominens 6.72 37:12 05:32 10.84 ir
16/07/18 Skrējiens redere18 7.31 41:42 05:42 10.52 ir
16/07/18 Skrējiens Andis87 5.00 28:37 05:43 10.48 ir
16/07/18 Skrējiens andronkuls 27.53 2:51:27 06:13 9.63 ir
16/07/18 Skrējiens valtijs 4.70 29:20 06:14 9.61 ir
16/07/18 Skrējiens Kristaps_b 5.33 37:00 06:56 8.64 ir
16/07/18 Skrējiens noskrēju! 9.12 41:34 04:33 13.16 ir
16/07/18 Skrējiens KarīnaK 5.58 33:32 06:00 9.98 ir
16/07/18 Skrējiens KarīnaK 5.59 31:33 05:38 10.63 ir
16/07/18 Skrējiens IneJer 11.15 1:05:53 05:54 10.15
16/07/18 Skrējiens m.kalejs 9.37 56:26 06:01 9.96
16/07/18 Skrējiens SandisC 5.25 29:15 05:34 10.77 ir
16/07/18 Skrējiens Oscilis 4.01 23:39 05:53 10.17
16/07/18 Skrējiens ezisskrien 12.39 1:02:47 05:04 11.84 ir
16/07/18 Skrējiens chunka 11.78 1:08:22 05:48 10.34 ir
16/07/18 Skrējiens xorix 5.04 25:53 05:08 11.68 ir
16/07/18 Skrējiens Bubu 16.31 1:31:52 05:37 10.65 ir
16/07/18 Skrējiens Sisidraa 5.82 52:14 08:58 6.69 ir
16/07/18 Skrējiens raraitis 14.04 1:06:00 04:42 12.76 ir
16/07/18 Skrējiens Ila_Kantī 0.59 02:15 03:48 15.73
16/07/18 Skrējiens drafts 12.38 1:53:27 09:09 6.55 ir
16/07/18 Skrējiens zetto 6.02 29:14 04:51 12.36 ir
16/07/18 Skrējiens LEICHA 10.19 1:07:58 06:40 9.00
16/07/18 Skrējiens WiskijsAlus 6.78 56:05 08:16 7.25
16/07/18 Skrējiens Rasmiks 7.43 50:36 06:48 8.81
16/07/18 Skrējiens cheburs 10.09 1:05:02 06:26 9.31 ir
16/07/18 Skrējiens kalvicc94 12.41 1:00:00 04:50 12.41 ir
16/07/18 Skrējiens bukss_a 7.24 50:28 06:58 8.61
16/07/18 Skrējiens didzzzons 10.12 1:04:38 06:23 9.39
16/07/18 Skrējiens mozgovoj ribak 11.44 49:29 04:19 13.87 ir
16/07/18 j vr Gita, Mošķis edGars 7.00 44:50 06:24 9.37 ir
16/07/18 Skrējiens rmamedov 5.26 34:49 06:37 9.06 ir
16/07/18 Skrējiens Highlanders 5.02 28:38 05:42 10.52 ir
16/07/18 Vakara skrējiens archa777 14.00 1:12:24 150 05:10 11.60 ir
16/07/18 Vakara Skrējiens Swimrunner 6.02 34:52 151 05:47 10.36 ir
16/07/18 Supervaroņi Grīziņkalnā borga 10.09 1:12:00 156 07:08 8.41 ir
16/07/18 līdz Ninierim MK70 5.74 36:45 132 06:24 9.37 ir
16/07/18 skrējiens MaritaR. 5.00 39:28 141 07:53 7.60
16/07/18 atsildīšanās alushox 5.68 33:55 146 05:58 10.05 ir
16/07/18 iesildīšanās alushox 5.65 31:33 140 05:35 10.74 ir
16/07/18 Pirmdien Biruta 9.89 59:24 06:00 9.99 ir
16/07/18 Skrējiens edžus11 1.01 05:29 150 05:25 11.05 ir
16/07/18 Skrējiens edžus11 10.01 54:07 155 05:24 11.10 ir
16/07/18 Atkopšanās no Jelgavas EvijaK 6.75 52:16 07:44 7.75
16/07/18 Lēnām. Uldzha 5.25 37:36 07:09 8.38 ir
16/07/18 Basām Rīgā einmed 15.11 1:43:33 123 06:51 8.76 ir
16/07/18 Ziedoņdarzā Andrejs 8.40 40:56 04:52 12.31 ir
16/07/18 Run maffija 5.60 30:04 05:22 11.18 ir
16/07/18 īsais pa tuvējiem parkiem a-anna 5.00 30:43 06:08 9.77 ir
16/07/18 Tukums sergejs1 3.01 18:48 06:14 9.61 ir
16/07/18 58 Mārtiņ š 6.54 32:37 04:59 12.03
16/07/18 Supervaroņu Grīzinkalna kāpnes Gatis.K 12.10 1:48:48 129 08:59 6.67 ir
16/07/18 kross ar kapinajumiem + VFS bunfunk 14.00 58:26 138 04:10 14.38 ir
16/07/18 skrējiens 7x kalniņi Kijevā Kalnu Dace 7.00 1:00:15 125 08:36 6.97 ir
16/07/18 Jūrmala, iesild., 5x(1,2kmĀ+800mL), atsild, lietus, +25C sola.scriptura 13.06 1:42:39 140 07:51 7.63 ir
16/07/18 (79.5) veloceliņš Liepāja-Grobiņa-Liepāja Kampars 17.00 1:19:32 04:40 12.82
16/07/18 Treniņš Duuu-da 7.13 41:59 05:53 10.19 ir
16/07/18 Pēc lietus ir foršāk Heņča 6.20 35:47 05:46 10.40 ir
16/07/18 Pirmdienas sauna Jay-P 6.24 37:00 135 05:55 10.12 ir
16/07/18 Līdz Bolderājas kāpai (pēc 40 min. velo) Jānis_v 11.70 1:02:02 134 05:18 11.32 ir
16/07/18 16/07/2018 CheekyDevil 7.38 54:04 07:19 8.19 ir
16/07/18 Pirmdienas naskais noris 10.05 48:59 04:52 12.31 ir
16/07/18 Skrējiens pa Rīgu KarlisBumans 12.00 1:09:34 05:47 10.35 ir
16/07/18 Easy Monday! Huch 7.78 41:35 05:20 11.23 ir
16/07/18 Kāpnes daskilla 12.20 1:55:38 144 09:28 6.33 ir
16/07/18 Skrējiens Prestons 8.92 1:00:10 138 06:44 8.90 ir
16/07/18 197. vitaminka D 8.09 34:28 153 04:15 14.08 ir
16/07/18 Pirmdienis. SelfijuPavēlniece 9.00 1:01:00 143 06:46 8.85 ir
16/07/18 Atkal pirmdiena, bet paspēju bez lietus Ginchaa 15.20 1:26:38 127 05:41 10.53 ir
16/07/18 18:32 Iesild./atsild.+Supervaroņu spēka treniņš(+21) GačusSkrunda 6.25 34:44 05:33 10.80 ir
16/07/18 Skrējiens anup 8.00 44:52 05:36 10.70 ir
16/07/18 Skrējiens vetrasputns 6.23 40:00 149 06:25 9.35 ir
16/07/18 Treniņš alex1255 6.51 46:02 113 07:04 8.49 ir
16/07/18 Pa lietu- kārtīgs mērcējiens Ance K 7.12 47:55 130 06:43 8.92 ir
16/07/18 Vakars uldis15 16.40 1:23:51 05:06 11.74 ir
16/07/18 Honningsvoga Aivars 7.41 ir
16/07/18 Skrējiens Gunjux 4.02 30:20 178 07:32 7.95 ir
16/07/18 Iesildisanas pirms SVT Miksons 7.30 36:46 05:02 11.91 ir
16/07/18 Pa lauku ceļu Kārniņu tuvumā Pičuks Dz 3.10 20:44 126 06:41 8.97
16/07/18 Mežvaldes buciņš Ilze1409 7.20
16/07/18 +29 dunduri nebija viegli maruks 10.00 58:05 157 05:48 10.33
16/07/18 Skrienlatvija194 Alvis D 14.00 1:07:20 04:48 12.48 ir
16/07/18 Vakara skrējiens JanisSkrien 11.00 59:10 155 05:22 11.15 ir
16/07/18 VR 25' Z4 Inga_K 9.94 53:07 148 05:20 11.23 ir
16/07/18 skrējiens ar kāpinājumiem guncha 7.18 34:36 04:49 12.45 ir
16/07/18 RR Apaļais 2.00 12:20 136 06:10 9.73 ir
16/07/18 treniņš gintss 9.02 50:36 149 05:36 10.70
16/07/18 Treniņš Nr.34 Ingus84 3.00 18:57 06:19 9.50 ir
16/07/18 Skrējiens uz mežu avenes saēsties Roziiite 8.01 52:26 06:32 9.17 ir
16/07/18 Uz Rullīti zirnis 7.71 45:08 05:51 10.25 ir
16/07/18 sākums rinaldins 9.72 1:02:54 06:28 9.27
16/07/18 28*rajončiks Rozens 11.61 1:03:36 142 05:28 10.95 ir
16/07/18 Ar ratiem (+28) nois 5.02 36:19 07:14 8.29 ir
16/07/18 Vakars, +26 jurdoms 7.35 47:02 06:23 9.38 ir
16/07/18 Veloceliņš JA 8.56 50:30 05:53 10.17
16/07/18 Jūra Toms_Ra 4.01 23:25 05:50 10.27 ir
16/07/18 Ezers IlzeP 5.90 42:16 07:09 8.38 ir
16/07/18 Zaķusalas savvaļa. Hiēna 9.24 50:28 05:27 10.99 ir
16/07/18 Skrējiens LPD 11.26 1:13:13 152 06:30 9.23 ir
16/07/18 Skrējiens 6.00 27:07 04:31 13.28 ir
16/07/18 Pirmdienis Rainy777 4.60 ir
16/07/18 Nordkapp Aivars 5.00 ir
16/07/18 Skrējiens Evija Miglane 3.76 27:13 124 07:14 8.29 ir
16/07/18 treniņš Aigarsol 10.06 53:37 05:19 11.26 ir
16/07/18 7km. pulsā forshais1 7.00 38:14 05:27 10.99 ir
16/07/18 s js79 11.50 1:13:45 138 06:24 9.36 ir
16/07/18 Skrējiens Chuncha 14.00 1:19:54 05:42 10.51 ir
16/07/18 Skrējiens Alarion 7.34 1:15:09 131 10:14 5.86 ir
16/07/18 jelgavastt Desperado 21.40 2:19:00 06:29 9.24 ir
16/07/18 parasta pirmdiena Raitis58 11.10 1:05:28 05:53 10.17 ir
16/07/18 (79.8) pludmale, veloceliņš Kampars 5.60 25:15 04:30 13.31
16/07/18 basā rīta rosme stjopachio 5.16 25:59 116 05:02 11.92 ir
16/07/18 Skrējiens Sikais77 3.04 18:02 05:55 10.11 ir
16/07/18 #129.4.1. JurBer 6.75 49:00 135 07:15 8.27 ir
16/07/18 Meklējot jūru Tallinā englishteacher 10.00 55:25 05:32 10.83 ir
16/07/18 Skrējiens LīgaB 0.42 03:00 07:08 8.40
16/07/18 Skrējiens vitjka 0.09 1:18:55 14:36:51 0.07 ir
16/07/18 Skrējiens ferons 9.80 1:04:06 06:32 9.17
16/07/18 Skrējiens LEICHA 4.37 29:08 06:40 9.00
16/07/18 Skrējiens Birkofs 6.28 35:20 05:37 10.66
16/07/18 Skrējiens zandarts 8.20 49:54 06:05 9.86 ir
16/07/18 Rīts karstumā OreMan 5.40 30:21 05:37 10.68 ir
16/07/18 no rīta 20*, 1909.g.dibināta AUDI kompānija JK 1.58 12:11 07:42 7.78 ir
16/07/18 rīta pikols 10.61 1:17:14 07:16 8.24 ir
16/07/18 Running Aivysuperman 3.26 19:46 121 06:03 9.90 ir
16/07/18 Running Aivysuperman 2.41 14:57 146 06:12 9.67 ir
16/07/18 Rīta riksis uldis15 8.00 44:34 05:34 10.77 ir
16/07/18 Skrējiens BGIRTS 10.03 53:19 167 05:18 11.29 ir
16/07/18 32 k Last Tempo Long Run Team. neomax 33.00 3:31:30 156 06:24 9.36 ir
16/07/18 Skrējiens garaissss 10.45 57:05 136 05:27 10.98 ir
15/07/18 Skrējiens xorix 4.02 22:45 05:39 10.60 ir
15/07/18 Spānija,atvadoties ni Nerjas,ar kāpinājumiem lielaa saule 8.06 43:41 05:25 11.07 ir
15/07/18 Baskāju rogainings polar 27.95 4:00:26 141 08:36 6.97
15/07/18 Treniņš Duuu-da 10.66 1:03:12 05:55 10.12 ir
15/07/18 Karostas Redans (15h/58) matiss 5.15 23:58 122 04:39 12.89 ir
15/07/18 Kas var zvaigznes izskaitīt, jūrā zvirgzdus izlasīt? Cukuriņš 4.44 27:28 06:11 9.70
15/07/18 Svētdienis Rainy777 2.20 ir
15/07/18 4 šuvju skrējiens biciic 8.02 45:55 05:43 10.48 ir
15/07/18 Skrējiens Logins 1.43 31:24 21:57 2.73 ir
15/07/18 Recovery pēc Jelgavas englishteacher 6.00 36:57 06:09 9.74 ir
15/07/18 Skrējiens PaulEdgecomb 10.03 59:37 05:56 10.09
15/07/18 #Montreux Week 3 Pulsa 90' rubernmardom 15.76 1:31:05 136 05:46 10.38 ir
15/07/18 skrejiens tomick 9.20 50:00 143 05:26 11.04 ir
15/07/18 ... lencho 5.04 43:00 142 08:31 7.03
15/07/18 pa dienu 26*, 1799.g.Ēģiptē atrasts Rosetas akmens JK 2.45 18:51 07:41 7.80 ir
15/07/18 skrējiens Mermaid 6.30 37:07 05:53 10.18 ir
15/07/18 Ar Kri, pēc izpletņiem Ina 4.44 27:25 150 06:10 9.72 ir
15/07/18 tipu tapu GintsK 12.01 1:03:17 05:16 11.39 ir
15/07/18 #73 (mežā) Pēča 10.56 1:03:13 05:59 10.02 ir
15/07/18 Skrējiens Lapsene 4.23 23:27 05:32 10.82 ir
15/07/18 4km Z1 Recovery Māris91 4.04 26:51 129 06:38 9.03 ir
15/07/18 Skrējiens ferons 11.54 1:05:46 05:41 10.53
15/07/18 Skrējiens rihardsf 0.65 04:32 06:58 8.60 ir
15/07/18 Skrējiens rihardsf 6.06 40:09 06:37 9.06 ir
15/07/18 Skrējiens KarīnaK 9.02 53:20 05:54 10.15 ir
15/07/18 Skrējiens Kristaps_b 7.00 40:00 05:42 10.50 ir
15/07/18 Skrējiens mozgovoj ribak 12.92 1:06:00 05:06 11.75 ir
15/07/18 Skrējiens Ievinja 10.00 1:24:52 08:29 7.07 ir
15/07/18 Skrējiens ilzemuc 3.77 34:15 09:05 6.60
15/07/18 Skrējiens Marchello89 6.28 34:36 05:30 10.89
15/07/18 2018 zem 2:59:00 laacis1981 8.10 1:10:11 08:39 6.92 ir
15/07/18 Skrējiens Bubu 15.28 1:17:36 05:04 11.81 ir
15/07/18 2018 zem 2:59:00 laacis1981 25.17 2:25:05 05:45 10.41 ir
15/07/18 Skrējiens zandarts 7.14 44:16 06:11 9.68 ir
15/07/18 Skrējiens aicis1 17.99 1:17:36 04:18 13.91 ir
15/07/18 Skrējiens uzzy 5.05 25:25 05:01 11.92 ir
15/07/18 Skrējiens Piiraadzinjsh 6.22 36:42 05:54 10.17
15/07/18 Orientēšanās Casperr 19.33 3:01:17 09:22 6.40 ir
15/07/18 Skrējiens Zigis 26.14 2:22:47 05:27 10.98
15/07/18 Skrējiens sjordzis 3.60 18:11 05:03 11.88 ir
15/07/18 Sigulda - serpentīna trepes 7x drafts 13.68 1:41:02 154 07:23 8.12 ir
15/07/18 Skrējiens zizis 5.01 33:23 06:39 9.00
15/07/18 Skrējiens GvidoB 5.40 27:18 05:03 11.87 ir
15/07/18 Skrējiens kalvis.upitis 8.81 48:02 05:27 11.00
15/07/18 Skrējiens m.kalejs 6.08 37:45 06:12 9.66
15/07/18 Skrējiens Jurgis_Klav 4.01 30:47 07:40 7.82
15/07/18 4km atjaunošanās MBirums 4.44 24:43 140 05:34 10.78 ir
15/07/18 Skrējiens chapic1 10.01 47:48 04:46 12.56 ir
15/07/18 Skrējiens didzzzons 15.04 1:15:24 05:00 11.97
15/07/18 Orientēšanās art.is 18.13 2:57:52 09:48 6.12 ir
15/07/18 Skrējiens Kikii 12.75 1:38:07 07:41 7.80 ir
15/07/18 Skrējiens Laur26 7.34 45:17 06:10 9.73
15/07/18 pa lielo apli līdz ezram MK70 5.53 34:43 142 06:16 9.56 ir
15/07/18 Skrējiens Martins.Krumins 10.38 47:53 04:36 13.01 ir
15/07/18 Skrējiens AgrisN 14.05 1:30:04 06:24 9.36
15/07/18 Skrējiens Arweed 26.45 2:17:43 05:12 11.52 ir
15/07/18 Lens ar aukstu pulsu rita riksis Gīča 11.00 57:41 143 05:14 11.44 ir
15/07/18 Skrējiens Lauris 16.55 1:52:55 133 06:49 8.79 ir
15/07/18 Skrējiens ccuguns 9.34 57:57 06:12 9.67 ir
15/07/18 Skrējiens Dainis 6.08 41:38 06:50 8.76 ir
15/07/18 Skrējiens Pokainis 8.74 1:01:38 07:03 8.51 ir
15/07/18 Skrējiens mriden 12.01 1:10:35 05:52 10.21
15/07/18 Skrienlatvija193 Alvis D 10.00 58:10 05:49 10.32 ir
15/07/18 Skrējiens kika1993 15.63 1:43:52 06:38 9.03
15/07/18 Skrējiens johaidi 8.11 52:06 06:25 9.34 ir
15/07/18 Skrējiens Sietiņiezis- Rāmnieki (pa kalniņiem) Laaurappeeterzone 25.11 2:25:17 149 05:47 10.37 ir
15/07/18 Skrējiens burunduks 5.02 34:08 06:47 8.82 ir
15/07/18 Skrējiens LEICHA 18.10 1:58:52 06:34 9.14
15/07/18 Skrējiens Valters 3.20 26:38 08:19 7.21 ir
15/07/18 V Trakais 7.46 33:57 04:33 13.18 ir
15/07/18 Skrējiens PriekaPuļķis 0.69 03:54 05:39 10.62 ir
15/07/18 Skrējiens PriekaPuļķis 2.46 10:20 04:12 14.28 ir
15/07/18 Garais ar tēti rotācijukaraliene 8.10 1:10:00 08:38 6.94 ir
15/07/18 Skrējiens Rasmiks 8.06 58:01 07:11 8.34
15/07/18 recovery pēc Jelgavas galateja 4.55 36:19 07:58 7.52
15/07/18 Swimrun Puhajarve divemaster 13.59 1:51:24 08:11 7.32 ir
15/07/18 7diena Gatis.K 8.50 1:22:07 129 09:39 6.21 ir
15/07/18 V-celiņi Rasels 7.60 45:00 123 05:55 10.13 ir
15/07/18 Paskr. pa dienu, kamer nav lietus (vakara nedaudz stieni) Csinipatas 16.13 1:17:05 04:46 12.56 ir
15/07/18 Centrs, Depo Juoņs 7.36 42:41 147 05:47 10.35 ir
15/07/18 Skrējiens IevaGoba 7.80 47:57 06:08 9.76
15/07/18 Igaunija Ilze 16.07 1:36:28 168 06:00 10.00 ir
15/07/18 Karsts Geo 5.25 32:12 135 06:08 9.78 ir
15/07/18 run JānisV 11.71 1:19:25 132 06:46 8.85 ir
15/07/18 Skrējiens Kru 12.17 56:59 04:40 12.81 ir
15/07/18 Skrejiens pa mezu Superkaplis 3.40 23:16 06:50 8.77
15/07/18 viduvējais Ugisdatavs 19.90 1:39:00 131 04:58 12.06 ir
15/07/18 Pa meža ceļu Pičuks Dz 3.40 24:18 115 07:08 8.40
15/07/18 Svētdienis _Edgars_ 10.05 59:29 05:55 10.14 ir
15/07/18 skrējiens a-anna 7.01 42:57 06:07 9.79 ir
15/07/18 Skrējiens 6.00 28:10 04:41 12.78 ir
15/07/18 Beberbeķu taciņās. Karrrsti jau no paša rīta. +235m, +21 (RF +23), 07:37 antra 14.47 1:46:34 160 07:21 8.15 ir
15/07/18 91 - par karstu zusurs 6.02 41:15 06:51 8.76 ir
15/07/18 Svētdien Biruta 7.02 40:43 05:48 10.34 ir
15/07/18 Rīta rosme ar peldi AndrisJ 5.18 32:11 06:12 9.66 ir
15/07/18 Anniņmuižas mežiņš Inta Amoliņa 7.16 48:24 154 06:45 8.88 ir
15/07/18 Skrējiens Evija Miglane 5.11 35:12 06:53 8.71 ir
15/07/18 Back to Zemgale! Huch 18.02 1:23:41 04:38 12.92 ir
15/07/18 Treniņs Richa_K 11.59 58:59 142 05:05 11.79 ir
15/07/18 Vecāķos gar jūru m.jordan 6.12 32:23 05:17 11.34 ir
15/07/18 Skrējiens Džuna 18.04 1:55:20 06:23 9.38 ir
15/07/18 rīta pludmale teicamnieks 8.00 ir
15/07/18 Iecavas cepešpanna ar Andi Jay-P 10.12 57:00 138 05:37 10.65 ir
15/07/18 118.treniņš Daiguciitis 11.82 1:11:12 06:01 9.96 ir
15/07/18 recovery und 7.99 43:00 05:22 11.15 ir
15/07/18 Jelgavas nakts pusmaratons IlzeP 21.10 2:47:26 07:56 7.56 ir
15/07/18 Vakara tren. Girts76 7.00 39:20 05:37 10.68 ir
15/07/18 Liepāja, vēlais eddyboyz 5.38 38:31 130 07:09 8.38 ir
15/07/18 Smagi vakarā skrējās gan karstums, gan nogurums James87 14.00 1:07:58 132 04:51 12.36 ir
15/07/18 Vakara Skrējiens Swimrunner 6.72 36:20 158 05:24 11.10 ir
15/07/18 Vakarbuļļu pludmales kross James87 4.65 19:00 04:05 14.68 ir
15/07/18 Lēni, vakars, +27C sola.scriptura 6.10 52:30 139 08:36 6.97 ir
15/07/18 skrējiens 18-07/7 sturitis 8.84 49:39 143 05:36 10.68 ir
15/07/18 Recovery Toms_Ra 3.10 19:52 06:24 9.36 ir
15/07/18 Slinkais svētdienis Lasma3 4.10 29:30 149 07:11 8.34 ir
15/07/18 Vivo baskāju rogainings: 4h stjopachio 27.37 3:53:23 100 08:31 7.04 ir
15/07/18 Rita rosme azhons 1.50 08:30 05:40 10.59 ir
15/07/18 lēni... sutoņa... tomēr sava prieka pēc Špicka 13.40 1:27:11 06:30 9.22 ir
15/07/18 Tulzna, kritieni u.c. neveiklības :D aijuciiic 17.10 1:56:34 06:49 8.80 ir
15/07/18 st kveks 15.00
15/07/18 Treniņš Rebelmusic 11.00 59:26 157 05:24 11.10
15/07/18 Pēc krustmātes piknika. Hiēna 2.63 15:54 06:02 9.92 ir
15/07/18 Basām pa pludmali. Uldzha 12.17 1:12:10 05:55 10.12 ir
15/07/18 17. vavere 8.51 1:10:38 150 08:18 7.23 ir
15/07/18 Sespadsmitnieks, max - 153 Aleks Kor 16.02 1:31:02 137 05:40 10.56 ir
15/07/18 Stary Kanal Bydgoski Kuks 17.30 1:43:00 05:57 10.08 ir
15/07/18 Veloceliņš+Botāniskais dārzs x3 topinjs 25.13 1:54:41 04:33 13.15 ir
15/07/18 Bajāri jurcha 18.03 1:51:19 131 06:10 9.72
15/07/18 Atjaunošanās Nordkapp Aivars 3.00 ir
15/07/18 Vivobarefoot Saulkrastu rogainings anciite 26.95 3:53:24 08:39 6.93 ir
15/07/18 Pa sutu Maikijs 14.10 1:36:54 06:52 8.73 ir
15/07/18 kross bunfunk 16.90 1:16:44 133 04:32 13.21
15/07/18 ] asfalts/zemenieks/takas (+325) cumulus 32.20 2:48:05 143 05:13 11.49 ir
15/07/18 57 Mārtiņ š 7.84 42:06 05:22 11.17
15/07/18 Svētdienas skrējiens Aigarsol 29.05 2:30:00 05:09 11.62 ir
15/07/18 Uz Rullīti zirnis 6.23 36:26 05:50 10.26 ir
15/07/18 Pulss daskilla 8.32 51:38 126 06:12 9.67 ir
15/07/18 196. vitaminka D 17.07 1:22:56 04:51 12.35 ir
15/07/18 11 marcix 11.08 53:26 04:49 12.44 ir
15/07/18 Vivobarefoot Baskāju rogainings OreMan 23.80 2:59:50 07:33 7.94 ir
15/07/18 Iesildīšanās Saulkrastos OreMan 0.60 03:09 05:15 11.43 ir
15/07/18 12:35, Vakar Jelgavā, šodien Jaunjelgavā. :) Dziņa 8.20 51:21 153 06:15 9.58 ir
15/07/18 Run maffija 10.00 53:14 05:19 11.27 ir
15/07/18 Ventspils sergejs1 2.60 13:41 05:15 11.40 ir
15/07/18 Traki karsts un smacīgs, pulss augsts Ginchaa 15.72 1:33:18 140 05:56 10.11
15/07/18 Basām Jūrmalā ar sievu einmed 27.04 3:18:01 116 07:19 8.19 ir
15/07/18 Skrējiens Dzintars 22.53 2:12:42 05:53 10.19 ir
15/07/18 Pusmaratons gintss 21.10 1:48:36 164 05:08 11.66
15/07/18 Iesildīšanās  gintss 1.62 11:38 125 07:10 8.36
15/07/18 Bija silti Heņča 10.40 1:00:28 05:48 10.32 ir
15/07/18 Jelgavas nakts pusmaratons andis.deze 10.14 35:19 161 03:28 17.23 ir
15/07/18 M30 Kalnu Dace 3.00 28:00 115 09:20 6.43 ir
15/07/18 Skrējiens lerychv 2.32 15:34 06:42 8.94
15/07/18 Skrējiens lerychv 13.05 1:10:23 130 05:23 11.12 ir
15/07/18 Jelgavas Nakts pusmaratons RobertsR 21.33 1:49:41 166 05:08 11.67 ir
15/07/18 Svētdiena +21 Z4 saulains karsti Aldis B 8.09 50:16 177 06:12 9.66 ir
15/07/18 25* Ziepčiks(73) Rozens 11.64 1:04:07 149 05:30 10.89 ir
15/07/18 Dienas skrējiens Zilajos kalnos Rupucis_ 8.05 49:33 155 06:09 9.75 ir
15/07/18 Izkustēšanās skrējiens Kiky 5.01 30:16 06:02 9.93 ir
15/07/18 dienas pikols 10.70 1:17:52 07:16 8.24 ir
15/07/18 (79.5) pludmale Kampars 8.80 46:00 05:13 11.48
15/07/18 Rīta izkustēšanās.Grūti Raitis 10.56 55:53 05:17 11.34 ir
15/07/18 Vivobarefoot Baskāju rogainings mtiger 25.05 2:59:47 07:10 8.36 ir
15/07/18 skrējiens guncha 18.29 1:25:25 145 04:40 12.85 ir
15/07/18 Skrējiens borga 8.57 50:00 139 05:50 10.28 ir
15/07/18 Lahema bro 9.04 51:41 05:43 10.49 ir
15/07/18 Skrējiens daceviksne 10.30 1:03:50 06:11 9.68 ir
15/07/18 Svētdienis. Aldara tornis 21x SelfijuPavēlniece 12.30 1:27:59 170 07:09 8.39 ir
15/07/18 skrējiens ar basām AigarsOKZK 3.01 19:14 06:23 9.39
15/07/18 13:23 Mežaparks(Atjaunošanās skrējiens/+26) GačusSkrunda 9.15 49:51 05:26 11.01 ir
15/07/18 Līdz Sarkandaugavai Sauļuks 30.30 3:03:12 06:02 9.92 ir
15/07/18 CCC v1.23 (Atgriežoties ierindā 2. dublis) Džokers 17.50 1:15:55 131 04:20 13.83 ir
15/07/18 Svētdienas Trail Treniņš Freelancer 18.60 2:04:05 147 06:40 8.99 ir
15/07/18 Lucavsala Guna 8.64 54:14 06:16 9.56 ir
15/07/18 Brizules pusmaratons RimantsL 21.17 1:59:56 05:39 10.59 ir
15/07/18 Atslodzes vnkIndra 14.75 1:46:13 138 07:12 8.33 ir
15/07/18 takas+p a-kodejs 19.43 2:01:07 148 06:14 9.63 ir
15/07/18 ... Aļona 12.01 1:26:47 137 07:13 8.30 ir
15/07/18 Run maffija 8.10 42:21 05:13 11.48 ir
15/07/18 Rīta skrējiens Edmunds 10.58 55:50 05:16 11.37 ir
15/07/18 Karstais Inga_K 19.44 1:54:33 140 05:53 10.18 ir
15/07/18 Biatlona trase Ivars L 5.00 33:03 06:36 9.08 ir
15/07/18 Madonas lielais aplis aKasIr 11.04 1:03:10 05:43 10.49 ir
15/07/18 After swim. sigita 5.16 24:43 04:47 12.53 ir
15/07/18 56 Mārtiņ š 25.02 1:59:00 04:45 12.62
15/07/18 VS 100' seismologs 18.67 1:42:33 131 05:29 10.92 ir
15/07/18 Atjaunojošais savos laukos. Dēļ vakardienas un dēļ karstuma pulss pārāk augsts. DK86 8.00 58:24 122 07:18 8.22 ir
15/07/18 Jelgava und 21.14 1:21:46 177 03:52 15.51 ir
15/07/18 Skrējiens kalvicc94 0.63 02:58 04:42 12.74 ir
15/07/18 Skrējiens frišais 6.64 36:37 05:30 10.88 ir
15/07/18 Skrējiens Platacis 18.39 1:42:27 05:34 10.77
15/07/18 Skrējiens andis161 11.30
15/07/18 Jelgavas pusmaratons marchello_ 21.44 1:44:14 04:51 12.34
15/07/18 Skrējiens raraitis 12.07 55:25 04:35 13.07 ir
15/07/18 Skrējiens InTi68 0.80 04:50 06:02 9.93 ir
15/07/18 Skrējiens oskarsdamb 21.01 1:49:54 05:13 11.47 ir
15/07/18 Skrējiens ttyson 13.08 1:22:26 06:18 9.52
15/07/18 Skrējiens Ila_Kantī 2.06 15:47 07:39 7.83
15/07/18 Skrējiens laurinaaaa 0.80 02:32 03:10 18.95 ir
15/07/18 Jelgavas nakts pusmaratons Aruurs 21.49 1:31:59 04:16 14.02 ir
15/07/18 Skrējiens Wictoria 11.38 1:03:22 05:34 10.78 ir
15/07/18 Rīta treniņš aicis 24.00 2:02:56 05:07 11.71 ir
15/07/18 Treniņš Nr.33 Ingus84 3.00 18:51 06:17 9.55 ir
15/07/18 karsts rīts eees 3.70 20:51 140 05:38 10.65 ir
15/07/18 Back...a little...Tu saproti Es Negribu Briedītis 5.25 29:29 05:36 10.68
15/07/18 Skrējiens garaissss 10.45 55:44 140 05:20 11.25 ir
15/07/18 5. Jelgavas pusmaratons edžus11 21.27 1:42:04 174 04:47 12.50 ir
14/07/18 Pirms drauga kāzām Naurītis 10.43 54:56 140 05:16 11.39 ir
14/07/18 Skrējiens bratiņš 1.72 11:37 06:45 8.88
14/07/18 Skrējiens bratiņš 21.34 1:36:39 04:31 13.25
14/07/18 Skrējiens bratiņš 1.52 10:14 06:43 8.91
14/07/18 Swimrun Otepē archa777 12.60 1:44:11 147 08:16 7.26 ir
14/07/18 Skrejiens VP13 4.96 23:28 04:43 12.68 ir
14/07/18 Valmiermuiža - sēņu inspekcija un atpakaļ caur Rūpniekiem Jānis_v 15.00 1:24:00 05:36 10.71 ir
14/07/18 Jelgavas Nakts pusmaratons Laumiņa 5.20 32:44 06:17 9.53
14/07/18 Atsildīšanās pēc Jelgavas nakts pusmaratona anup 1.72 10:12 05:55 10.12 ir
14/07/18 Jelgavas nakts pusmaratons anup 5.26 21:26 04:04 14.72 ir
14/07/18 Iesildīšanās pirms Jelgavas nakts pusmaratona anup 4.73 25:03 05:17 11.33 ir
14/07/18 Jelgavas nakts pusmaratons Duuu-da 21.41 1:38:15 04:35 13.07 ir
14/07/18 Iesildīšanās / atsildīšanās Duuu-da 4.85 36:37 07:32 7.95 ir
14/07/18 Jelgavas pusmaratons zviedrss 21.10 1:27:38 166 04:09 14.45 ir
14/07/18 Kas var dziesmas izdziedāt, kas valodas izrunāt? Cukuriņš 21.31 2:00:05 05:38 10.65 ir
14/07/18 Sestdienis Rainy777 9.50 ir
14/07/18 Jelgavas nakts pusmaratons IngaAD 10.09 56:20 05:34 10.75
14/07/18 Jelgavas nakts pusmaratons 2018! muskulītis 10.40 55:40 177 05:21 11.21 ir
14/07/18 iesildīšanās un atsildīšanās avalanche 2.20
14/07/18 Jelgava BigBank skrējiens avalanche 10.10 51:02 05:03 11.87
14/07/18 Jelgavas nakts pusmaratons Jhonsons 9.84 40:57 04:09 14.42 ir
14/07/18 Warmup cool down runnerchick 4.00 25:00 06:15 9.60 ir
14/07/18 Горный бег Кировск перепад высоты 800м runnerchick 10.40 1:00:24 05:48 10.33 ir
14/07/18 Jelgavas pusmaratons unknown 21.36 1:37:45 184 04:34 13.11
14/07/18 warm up unknown 1.71 11:21 124 06:38 9.04
14/07/18 SL Jelgava englishteacher 10.11 36:19 03:35 16.70 ir
14/07/18 Iesildīšanās + atsildīšanās englishteacher 5.00 31:19 06:15 9.58 ir
14/07/18 Skrējiens zetto 11.38 1:02:23 05:28 10.95 ir
14/07/18 #Montreux Week 3 Pulsa 22 km rubernmardom 22.03 1:53:40 138 05:09 11.63 ir
14/07/18 Jelgavas nakts pusmaratons. tomick 21.39 1:29:54 172 04:12 14.28 ir
14/07/18 Jelgavas nakts PusMaratons JK 21.10 2:21:02 06:41 8.98 ir
14/07/18 Jelgava Mermaid 10.00 49:57 04:59 12.01 ir
14/07/18 Jelgavas nakts pusmaratons, TT 2h Ina 21.36 2:00:00 172 05:37 10.68 ir
14/07/18 Jelgavas nakts pm Zanda19 10.00 59:57 165 05:59 10.01 ir
14/07/18 Skrējiens edGars 1.68 10:51 06:27 9.29 ir
14/07/18 Skrējiens Lapsene 5.14 29:28 05:43 10.47 ir
14/07/18 SL JPM 10km edGars 10.13 40:03 03:57 15.18 ir
14/07/18 Viļņa Ultralapsa 100.00 10:37:00 145 06:22 9.42 ir
14/07/18 Jelgavas nakts pusmaratons spruuds 10.10 38:48 03:50 15.62 ir
14/07/18 Liepājas īriens +warm up spruuds 2.82 20:19 07:12 8.33
14/07/18 Jelgavas Nakts Pusmaratons 2018 runner-arrnis 21.30 1:22:08 182 03:51 15.56 ir
14/07/18 Skrējiens Stalte 6.25 38:23 06:08 9.77 ir
14/07/18 Skrējiens Jānis88 21.50 2:09:16 06:00 9.98 ir
14/07/18 Skrējiens Kļavu Pēteris 6.14 38:08 06:12 9.66 ir
14/07/18 Skrējiens Kļavu Pēteris 21.26 1:39:53 04:41 12.77 ir
14/07/18 Skrējiens Kaspars33 6.01 30:08 05:00 11.97 ir
14/07/18 Jelgavas pusmaratons Kaspars33 10.07 37:39 03:44 16.05 ir
14/07/18 Skrējiens JanJ 21.29 1:21:14 03:48 15.73
14/07/18 Skrējiens Juris Brēdiķis 1.27 08:48 06:55 8.66 ir
14/07/18 Jelgavas pusmaratons (60.) Juris Brēdiķis 21.27 1:40:14 04:42 12.73 ir
14/07/18 Skrējiens Mārtiņš Pakulis 21.29 1:56:58 05:29 10.92 ir
14/07/18 Skrējiens redere18 3.30 19:15 05:50 10.29 ir
14/07/18 Skrējiens redere18 5.25 22:55 04:21 13.75 ir
14/07/18 Skrējiens andronkuls 1.05 05:37 05:20 11.22 ir
14/07/18 Skrējiens andronkuls 21.32 1:34:48 04:26 13.49 ir
14/07/18 Skrējiens gudeens 1.31 08:06 06:10 9.70
14/07/18 Skrējiens gudeens 21.34 1:40:03 04:41 12.80
14/07/18 Skrējiens Kristaps Bruss 21.29 1:36:45 04:32 13.20 ir
14/07/18 Skrējiens Pokainis 5.04 30:46 06:06 9.83 ir
14/07/18 Jelgavas pusmaratons izbadējies 21.28 1:48:49 178 05:06 11.73 ir
14/07/18 V Trakais 23.00 1:40:23 04:21 13.75 ir
14/07/18 Skrējiens Pretī 100 Laaurappeeterzone 8.10 37:01 04:34 13.13 ir
14/07/18 Preti 100 rotācijukaraliene 4.04 19:54 04:55 12.18 ir
14/07/18 Pretī 100 bērnu skrējiens rotācijukaraliene 1.00 03:30 03:30 17.14 ir
14/07/18 labrit divemaster 1.30 08:08 06:15 9.59 ir
14/07/18 48.Jelgavas pusmaratons (tveice) aivars33 21.10 2:07:23 06:02 9.94 ir
14/07/18 ... Geo 4.40 33:00 131 07:29 8.00 ir
14/07/18 Atsilde Kru 2.23 14:11 06:21 9.43 ir
14/07/18 Jelgavas Nakts pusmaratona 10km Kru 10.12 33:53 03:20 17.92 ir
14/07/18 Iesildīšanās Kru 4.61 22:14 04:49 12.44 ir
14/07/18 62 Guntis.Balodis 21.37 1:45:32 04:56 12.15
14/07/18 Lilaste AndrisJ 16.23 1:37:51 06:01 9.95 ir
14/07/18 Rīta mierīgais pa Rīgas ielām. Kopā ar Aivaru. +20 (RF +22), 07:47 antra 9.63 1:07:04 151 06:57 8.62 ir
14/07/18 rīta pludmale teicamnieks 8.00 ir
14/07/18 OS Rīkas Cempionats - sēne Ugis 9.02 59:00 06:32 9.17 ir
14/07/18 Mežaparks alushox 18.92 1:50:05 139 05:49 10.31 ir
14/07/18 Jelgavas nakts pusmaratons, ne visai veiksmīgs skrējiens James87 10.00 35:42 03:34 16.81 ir
14/07/18 Iesildīšanās/atsildīšanās Jelgavas pusmaratonā James87 8.45 45:00 05:19 11.27 ir
14/07/18 S-pils. Karsta sestdiena .Linda 10.91 1:04:34 138 05:55 10.14 ir
14/07/18 Rita rosme azhons 1.50 07:10 04:46 12.56 ir
14/07/18 Treniņš Rebelmusic 7.00 39:30 157 05:38 10.63
14/07/18 Jelgavas nakts flower 10.20 51:10 150 05:00 11.96 ir
14/07/18 rīts pēc PPPPP flower 5.02 28:20 143 05:38 10.63 ir
14/07/18 Viegls skrējiens pēc darba; 22:30 Jolis 13.02 1:13:15 05:37 10.66
14/07/18 celiņš jurcha 11.02 1:02:12 124 05:38 10.63
14/07/18 Rīta aplis. Didzo 8.20 46:46 05:42 10.52 ir
14/07/18 SL 5.posms Jelgava bunfunk 10.15 33:30 166 03:18 18.18
14/07/18 iesildisanas bunfunk 3.00 14:01 04:40 12.84
14/07/18 Big Bank Jelgava kacerovska 10.10 58:26 05:47 10.37
14/07/18 Jelgavas pusmaratpns lynx21 10.55 1:01:11 05:47 10.35
14/07/18 11 marcix 11.08 52:42 04:45 12.61 ir
14/07/18 22:00, 5. Jelgavas nakts pusmaratons Dziņa 21.10 1:49:26 172 05:11 11.57 ir
14/07/18 5. Jelgavas nakts pusmaratons (10km) Ģirtiņš 10.00 50:38 164 05:03 11.85 ir
14/07/18 21:12, iesildīšanās Dziņa 1.50 11:08 155 07:25 8.08 ir
14/07/18 Pa naksnīgo Jelgavu Elīna K 21.50 2:20:38 06:32 9.17 ir
14/07/18 skrējiens 18-07/6 (Saulkrastu Saulrieta skrējiens) sturitis 14.00 1:12:41 167 05:11 11.56 ir
14/07/18 Jelgavas pusmaratons Dzintars 21.10 1:34:18 04:28 13.42 ir
14/07/18 atsildīšanās Kalnu Dace 1.00 08:40 121 08:40 6.92 ir
14/07/18 10x riepa Kalnu Dace 2.00 16:40 142 08:20 7.20 ir
14/07/18 iesildīšanās Kalnu Dace 2.00 14:35 123 07:17 8.23 ir
14/07/18 Bigbank skrien Latvija 5.posms Jelgavā Alice 10.12 59:15 05:51 10.25 ir
14/07/18 Jelgavas pusmaratons Prestons 21.26 1:52:13 161 05:16 11.37 ir
14/07/18 Jelgavas nakts pusmaratons jurdoms 21.34 2:00:57 05:40 10.59 ir
14/07/18 Jelgava EK1983 21.31 2:14:19 172 06:18 9.52 ir
14/07/18 Jelgavas nakts pusīte Raitis 21.27 1:29:43 04:13 14.22 ir
14/07/18 skrējiens vs Imantdienas vetrasputns 8.65 55:01 145 06:21 9.43 ir
14/07/18 63 arturs.locmelis 5.69 27:00 04:44 12.64 ir
14/07/18 63 arturs.locmelis 3.75 31:00 08:16 7.26 ir
14/07/18 63 arturs.locmelis 5.20 17:51 03:25 17.48 ir
14/07/18 63 arturs.locmelis 4.97 29:00 137 05:50 10.28 ir
14/07/18 Jelgavas nakts 10-nieks Raitis58 10.00 47:06 04:42 12.74 ir
14/07/18 Straupe Richa_K 4.07 16:20 164 04:00 14.95 ir
14/07/18 iesild AigarsOKZK 1.41 07:46 05:30 10.89 ir
14/07/18 Jelgavas puse AigarsOKZK 21.10 1:43:25 04:54 12.24 ir
14/07/18 atsildīšanās KarlisBumans 1.00 06:44 06:44 8.91 ir
14/07/18 Jelgavas nakts pusmaratons KarlisBumans 21.10 1:38:04 04:38 12.91 ir
14/07/18 warm up KarlisBumans 1.90 10:59 05:46 10.38 ir
14/07/18 BIG BANK SKRIEN LATVIJĀ. JELGAVA Tatjana1999 10.10 50:21 04:59 12.04
14/07/18 Jelgavas nakts pusmaratons Diddi 21.36 2:09:52 06:04 9.87 ir
14/07/18 Jelgava Eigen_@ 21.56 2:23:47 158 06:40 9.00 ir
14/07/18 Atsildīšanās topinjs 3.55 18:52 05:18 11.29 ir
14/07/18 5. Jelgavas nakts pusmaratons topinjs 10.00 35:17 03:31 17.01 ir
14/07/18 Iesildīšanās topinjs 5.41 31:59 05:54 10.15 ir
14/07/18 Skrējiens Gunjux 6.01 40:30 180 06:44 8.90 ir
14/07/18 +22C Saulkrasti Stayer 7.00 34:38 04:56 12.13 ir
14/07/18 Iesildīšanās/atsildīšanās daskilla 6.74 38:55 139 05:46 10.39 ir
14/07/18 Jelgavas pusmaratons Edmunds 21.35 1:41:47 04:46 12.59 ir
14/07/18 Iesildīšanās + atsildīšanās borga 5.88 31:13 05:18 11.30 ir
14/07/18 Jelgavas pusmaratons daskilla 21.36 1:24:42 180 03:57 15.13 ir
14/07/18 Jelgavas nakts pusmaratons borga 21.32 1:28:59 183 04:10 14.38 ir
14/07/18 Jelgavas pusmaratons Kiky 21.38 1:47:40 05:02 11.91 ir
14/07/18 Jelgavas nakts pusmaratons Andrisss 21.35 1:49:00 05:06 11.75 ir
14/07/18 Jelgavas nakts pusmaratons ugaldins 21.45 2:05:30 05:51 10.25 ir
14/07/18 Jelgavas Nakts pusmaratons ~(+20) thunder man 21.10 1:33:12 04:25 13.58 ir
14/07/18 Pārgaujas novada skrējiens Pretī 100 ArnisŠ 8.05 35:47 04:26 13.50
14/07/18 Jelgavas nakts pusmaratons p.sintija 21.33 1:41:56 04:46 12.56 ir
14/07/18 5. Jelgavas nakts pusmaratons 10 km DK86 10.13 41:58 176 04:08 14.48 ir
14/07/18 iesild./atsild. DK86 5.00 30:25 132 06:05 9.86 ir
14/07/18 Iesild und 3.64 20:36 05:39 10.60 ir
14/07/18 Paskraidīju Evijai līdzi Renee 9.08 52:47 163 05:48 10.32 ir
14/07/18 Jelgavas Nakts Pusmaratons Arnis 21.31 2:04:53 161 05:51 10.24 ir
14/07/18 run JānisV 10.10 37:14 176 03:41 16.28 ir
14/07/18 run JānisV 4.04 21:18 128 05:16 11.38 ir
14/07/18 Skrējiens sominens 4.10 26:40 06:30 9.23 ir
14/07/18 Skrējiens sominens 21.44 2:00:53 05:38 10.64 ir
14/07/18 Skrējiens freeda 10.11 50:31 04:59 12.01 ir
14/07/18 Skrējiens NITRO 21.23 2:02:33 05:46 10.39 ir
14/07/18 Skrien Latvija Jelgava Krī 21.34 1:44:43 04:54 12.23 ir
14/07/18 Skrējiens kopijs 21.44 1:57:09 05:27 10.98 ir
14/07/18 Skrējiens laurinaaaa 0.46 03:03 06:37 9.05 ir
14/07/18 Skrējiens laurinaaaa 10.10 48:08 04:45 12.59 ir
14/07/18 Skrējiens Wictoria 12.35 1:05:50 05:19 11.26 ir
14/07/18 Jelgavas pusmaratons Kampars 21.10 1:24:45 04:01 14.94
14/07/18 Jelgavas nakts pusmaratons Mada 21.37 1:56:30 05:27 11.01 ir
14/07/18 2018 zem 2:59:00 laacis1981 8.14 32:47 04:01 14.90 ir
14/07/18 Jelgavas nakts pusmaratons (Polar km un laiks) EvijaK 21.40 1:59:55 05:36 10.71
14/07/18 Devitnieks, intervali 4 x 1000, max - 180 Aleks Kor 9.02 44:54 150 04:58 12.05 ir
14/07/18 Jelgavas 10km gskunstins 10.09 45:44 175 04:31 13.24 ir
14/07/18 Jelgavas pusmaratons. Gīča 21.27 1:35:00 144 04:27 13.43 ir
14/07/18 Iesild. ar Karli pirms Jelgavas pusmaratona. Gīča 2.00 11:07 144 05:33 10.79 ir
14/07/18 Jelgavas nakts pusmaratons otto 21.43 1:38:01 161 04:34 13.12 ir
14/07/18 5. Jelgavas nakts pusmaratons MartinsF 21.40 2:13:12 166 06:13 9.64 ir
14/07/18 Pirms " Puķu draugiem" Ginchaa 8.20 47:57 128 05:50 10.26
14/07/18 Pēc pārguruma perioda neticami pieklājīgs rezultāts skai-tlot-ajs 21.29 1:35:36 04:29 13.36 ir
14/07/18 Iesildīšanās vakarā skai-tlot-ajs 1.72 10:53 06:19 9.48 ir
14/07/18 Iesildīšanās no rīta skai-tlot-ajs 3.18 20:00 06:17 9.54 ir
14/07/18 Jelgavas pusmaratons vnkIndra 21.31 1:53:00 165 05:18 11.32 ir
14/07/18 Jelgavas 10K noris 10.09 40:41 04:01 14.88 ir
14/07/18 Atsildīšanās pēc Jelgavas noris 1.61 10:04 06:15 9.60 ir
14/07/18 Iesildīšanās pirms Jelgavas 10k noris 3.86 20:23 05:16 11.36 ir
14/07/18 SL 5. posms - Jelgavas Pusmaratons Māris91 21.29 1:27:53 179 04:07 14.54 ir
14/07/18 Iesildīšanās un atsildīšanās Jelgavai Māris91 3.59 21:24 135 05:57 10.07 ir
14/07/18 jelgavas pumaratons normundiņš 10.50 1:02:36 168 05:57 10.06 ir
14/07/18 Jelgavas pusmaratons Rainers 21.10 1:38:42 04:40 12.83 ir
14/07/18 Jelgavas nakts pusmaratons Chuncha 5.23 21:04 04:01 14.90 ir
14/07/18 Iesilde/atsilde Chuncha 5.00 32:00 06:24 9.38 ir
14/07/18 2018.42 edgarsc 21.10 2:08:21 166 06:04 9.86 ir
14/07/18 Skrējiens Natthe 1.26 07:13 05:43 10.48 ir
14/07/18 Jelgavas nakts pusmaratons Natthe 21.27 1:47:25 160 05:03 11.88 ir
14/07/18 Skrējiens mozgovoj ribak 21.19 1:22:16 03:52 15.45 ir
14/07/18 Skrējiens MartinsOzolins 0.95 06:58 07:20 8.18
14/07/18 Skrējiens MartinsOzolins 21.45 2:20:42 06:33 9.15
14/07/18 Skrējiens Smiteeens 10.10 58:02 05:44 10.44
14/07/18 Skrējiens ruducis 21.32 1:45:51 04:57 12.09
14/07/18 Skrējiens Ainīc 2.75 16:59 06:10 9.72 ir
14/07/18 Skrējiens Ainīc 21.36 1:49:54 05:08 11.66 ir
14/07/18 Skrējiens Ainīc 2.03 12:49 06:18 9.50 ir
14/07/18 5. Jelgavas nakts pusmaratons mihails.basmanovs 10.10 51:01 05:03 11.88
14/07/18 Jelgavas nakts pusmaratons MBirums 21.42 1:36:59 168 04:31 13.25 ir
14/07/18 Skrējiens PaulEdgecomb 4.09 22:55 05:36 10.71
14/07/18 Skrējiens PaulEdgecomb 21.29 1:28:10 04:08 14.49
14/07/18 Skrējiens PaulEdgecomb 2.07 13:02 06:17 9.53
14/07/18 Skrējiens Logins 1.69 18:20 10:50 5.53 ir
14/07/18 Jelgavas pohainais pusmaratons Logins 21.34 2:05:28 169 05:52 10.21 ir
14/07/18 Skrējiens experc 0.22 02:14 10:09 5.91 ir
14/07/18 Skrējiens experc 21.29 1:46:23 04:59 12.01 ir
14/07/18 Skrējiens GeT_RiGhT 2.70 14:48 05:28 10.95
14/07/18 Skrējiens GeT_RiGhT 21.29 1:33:39 04:23 13.64
14/07/18 Skrējiens IneJer 10.09 45:06 04:28 13.42
14/07/18 Skrējiens vaicis 0.86 23:38 27:28 2.18
14/07/18 Skrējiens Anda0 0.39 02:32 06:29 9.24 ir
14/07/18 Skrējiens Anda0 21.41 2:21:36 06:36 9.07 ir
14/07/18 Skrējiens RiKa 21.35 1:38:00 04:35 13.07
14/07/18 Jelgavas nakts pusmaratons nonnis 21.24 1:48:12 05:05 11.78 ir
14/07/18 Skrējiens Casperr 0.90 05:09 05:43 10.49 ir
14/07/18 Skrējiens Casperr 21.28 1:25:14 04:00 14.98 ir
14/07/18 Skrējiens Jurgis_Klav 0.94 08:10 08:41 6.91
14/07/18 Skrienlatvija192 Alvis D 21.42 1:25:01 03:58 15.12 ir
14/07/18 5.Jelgavas nakts pusmaratons GačusSkrunda 21.35 1:23:30 03:54 15.34 ir
14/07/18 Skrējiens agnijs 21.34 1:31:20 04:16 14.02
14/07/18 Skrējiens Gatis Krūze 1.45 07:59 05:30 10.90
14/07/18 Skrien Latvija. Jelgavas pusmaratons. Gatis Krūze 21.10 1:47:09 05:04 11.82 ir
14/07/18 Skrējiens didzzzons 5.00 24:04 04:48 12.47
14/07/18 Skrējiens didzzzons 10.13 34:48 03:26 17.47
14/07/18 Skrējiens didzzzons 1.43 08:54 06:13 9.64
14/07/18 21:17 Iesild.Jelgavā(+19) GačusSkrunda 3.32 19:19 05:49 10.31 ir
14/07/18 Jelgavas Nakts Pusmaratons 2018. Millers 21.33 1:53:01 05:17 11.32 ir
14/07/18 Skrējiens xorix 10.11 50:50 05:01 11.93 ir
14/07/18 Jelgavas nakts ... desmitnieks Aļona 10.07 54:48 164 05:26 11.03 ir
14/07/18 Jelgavas nakts ... desmitnieks Raibacainais Ezītis 10.07 46:52 165 04:39 12.89 ir
14/07/18 BB Jelgava Toms_Ra 10.14 47:10 04:39 12.90 ir
14/07/18 Iesildīšanās Toms_Ra 2.00 10:26 05:13 11.50 ir
14/07/18 121.Jelgavas pusmaratons ilvarito 21.37 1:37:54 04:34 13.10 ir
14/07/18 vīrs ar bērnu pastaigā eees 8.03 45:00 141 05:36 10.71 ir
14/07/18 Pērkons granda ducināja Lauma 20.00 2:05:12 141 06:15 9.58 ir
14/07/18 Jelgavas nakts pusmaratons Zviedriete 21.39 1:58:40 05:32 10.82
14/07/18 viegls skrējiens pragma 9.00 57:00 160 06:20 9.47
14/07/18 Iesildīšanās, atsildīšanās Aivars 3.00 ir
14/07/18 Yllas Pallas trail run Aivars 55.30 10:22:01 137 11:14 5.33 ir
14/07/18 Skrējiens M.Po 13.06 1:22:52 06:20 9.46 ir
14/07/18 Skrējiens Sancha 5.21 27:29 05:16 11.37 ir
14/07/18 Skrējiens Mr.Linde 8.74 1:02:00 138 07:05 8.46 ir
14/07/18 Skrējiens GvidoB 10.27 52:10 05:04 11.81 ir
14/07/18 Skrējiens rambler 10.13 1:04:57 06:24 9.36 ir
14/07/18 Skrējiens Anncce 0.39 02:35 06:37 9.06
14/07/18 Skrējiens Anncce 10.10 56:47 05:37 10.67
14/07/18 Skrējiens Romeo 16.87 1:59:00 07:03 8.51 ir
14/07/18 pulsa drafts 6.06 34:34 05:42 10.52 ir
14/07/18 pulsa drafts 17.32 1:35:21 134 05:30 10.90 ir
14/07/18 Skrējiens Jaudinieks 100.00 12:27:54 07:28 8.02 ir
14/07/18 Skrējiens ferons 0.99 05:03 05:06 11.76
14/07/18 Jelgavas nakts pusmaratons 10km ferons 10.16 42:19 04:09 14.41
14/07/18 Skrējiens Valters 3.60 28:05 07:48 7.69 ir
14/07/18 Skrējiens Valters 2.10 17:15 08:12 7.30 ir
14/07/18 Skrējiens Valters 10.09 56:51 05:38 10.65 ir
14/07/18 Skrējiens rmamedov 10.08 47:59 04:45 12.60 ir
14/07/18 Skrējiens Jurgis_Klav 10.12 46:10 04:33 13.15
14/07/18 Skrējiens lauvupuika 5.23 29:44 05:41 10.55
14/07/18 Skrējiens ricardsbalcis 6.01 38:29 06:24 9.37 ir
14/07/18 Skrējiens jans.s 11.92 1:10:53 05:56 10.09 ir
14/07/18 Skrējiens Rasmiks 9.99 41:23 04:08 14.48
14/07/18 Skrējiens Jānis Tiltiņš 1.65 12:50 07:46 7.71 ir
14/07/18 Skrējiens Jānis Tiltiņš 5.35 33:50 06:19 9.49 ir
14/07/18 SL Jelgavas pusmaratons. sutīgs ne pa jokam zandarts 10.01 47:34 167 04:45 12.63 ir
14/07/18 Skrējiens FonMareks 16.05 1:14:21 04:37 12.95 ir
14/07/18 Skrējiens Elhana 9.00 59:39 06:37 9.05 ir
14/07/18 Skrējiens Rudix 5.19 23:25 04:30 13.30 ir
14/07/18 6diena Gatis.K 24.00 2:03:57 128 05:09 11.62 ir
14/07/18 Skrējiens Klaavs 22.77 2:46:34 07:18 8.20 ir
14/07/18 Skrējiens Andrex 2.79 15:46 05:39 10.62
14/07/18 Skrējiens Miezers 10.10 56:54 05:38 10.65 ir
14/07/18 Skrējiens Bubu 15.11 1:17:37 05:08 11.68 ir
14/07/18 Jelgavas nakts pusmaratons 2018 galateja 21.10 2:07:21 06:02 9.94 ir
14/07/18 warm up puuce 1.39 08:12 120 05:53 10.17 ir
14/07/18 Jelgavas nakts pusmaratons puuce 21.24 1:28:33 167 04:10 14.39 ir
14/07/18 Skrējiens guntars.bumans 0.13 00:36 04:36 13.00
14/07/18 Skrējiens guntars.bumans 10.01 54:50 05:28 10.95
14/07/18 Skrējiens AigarsT 1.69 10:56 06:28 9.27
14/07/18 Skrējiens AigarsT 18.13 1:39:57 05:30 10.88
14/07/18 Skrējiens ievala 6.03 37:10 06:09 9.73
14/07/18 Skrējiens johaidi 23.03 2:19:02 06:02 9.94 ir
14/07/18 Skrējiens Aya 10.34 1:15:48 07:19 8.18
14/07/18 Iesildīšanās MBirums 1.60 09:59 141 06:14 9.62 ir
14/07/18 Skrējiens chunka 6.10 30:20 04:58 12.07 ir
14/07/18 Skrējiens m.kalejs 8.56 50:18 05:52 10.21
14/07/18 Skrējiens m.kalejs 6.05 37:06 06:07 9.78
14/07/18 Skrējiens pūcīte 14.97 1:29:54 06:00 9.99 ir
14/07/18 Skrējiens cheburs 12.06 1:09:10 05:44 10.46 ir
14/07/18 Skrējiens raraitis 1.71 08:52 05:11 11.57 ir
14/07/18 Skrējiens raraitis 8.87 35:01 03:56 15.20 ir
14/07/18 Skrējiens raraitis 1.67 11:14 06:43 8.92 ir
14/07/18 Skrējiens KarīnaK 11.08 1:03:37 05:44 10.45 ir
14/07/18 Skrējiens Sikais77 9.21 47:40 05:10 11.59 ir
14/07/18 Skrējiens StonkaD 0.63 04:13 06:41 8.96 ir
14/07/18 Viss slikti StonkaD 5.19 24:54 04:47 12.51 ir
14/07/18 Skrējiens Rodzers 10.11 50:52 05:01 11.93
14/07/18 Jūra un kāpas. Grūti. Cassandra 30.03 2:53:33 05:46 10.38 ir
14/07/18 Skrējiens MārcisB 34.53 3:26:53 05:59 10.01 ir
14/07/18 skrējiens par godu vasarai Ieva 1.82 10:28 05:45 10.43
14/07/18 195. vitaminka D 6.78 32:35 04:48 12.48 ir
14/07/18 Lēni, +25C sola.scriptura 10.61 1:25:11 140 08:01 7.47 ir
14/07/18 NCT Lauf ruu 6.87 47:12 06:52 8.73 ir
14/07/18 Agrais rīta Spānijā,Nerjā lielaa saule 8.12 45:18 05:34 10.75 ir
14/07/18 vakars, +22C, un sāka līt Lote 6.57 39:54 06:04 9.88 ir
14/07/18 VS 60' seismologs 10.63 1:00:34 134 05:41 10.53 ir
14/07/18 Pa meža ceļu Pičuks Dz 3.40 23:00 06:45 8.87
14/07/18 Skrejiens pa mezu Superkaplis 3.55 22:25 159 06:18 9.50
14/07/18 55 Mārtiņ š 8.11 42:41 05:15 11.40
14/07/18 run +1.5km tempo Alligator 10.20 47:00 132 04:36 13.02 ir
14/07/18 līdz ezeram MK70 4.70 30:51 142 06:33 9.14 ir
14/07/18 Viļņas 100 km Dzo 100.00 8:51:20 05:18 11.29 ir
14/07/18 Rīgas čempionāts, orientēšnās Daiguciitis 6.80 58:41 08:37 6.95 ir
14/07/18 st. kveks 13.00
14/07/18 Rīgas čempionāts (orientēšanās) uldis15 10.70 1:22:47 07:44 7.76 ir
14/07/18 VR karstumiņā Inga_K 12.26 1:07:03 151 05:28 10.97 ir
14/07/18 Biķernieki/Šmerlis Sauļuks 12.12 1:16:05 06:16 9.56 ir
14/07/18 Aplis nois 9.01 1:01:08 06:47 8.84 ir
14/07/18 Stary Kanal Bydgoski Kuks 11.20 1:00:00 05:21 11.20 ir
14/07/18 Pa Liepājas pludmali jestrais 10.40 1:08:24 139 06:34 9.12 ir
14/07/18 #128.3.6. JurBer 13.26 1:35:24 134 07:11 8.34 ir
14/07/18 Karsti šodien, rīt būs jābrauc uz pludmali! aijuciiic 6.00 37:28 06:14 9.61 ir
14/07/18 Basām Jūrmalā ar sievu einmed 20.20 2:28:08 114 07:20 8.18 ir
14/07/18 Liepāja eddyboyz 5.11 38:18 137 07:29 8.01 ir
14/07/18 VR Apaļais 12.00 1:29:30 149 07:27 8.04 ir
14/07/18 Pilseta aicis 8.00 39:04 04:53 12.29 ir
14/07/18 Sestdienas Garais Pulsa Skrējiens Freelancer 25.73 2:13:12 144 05:10 11.59 ir
14/07/18 Run maffija 6.30 33:41 05:20 11.22 ir
14/07/18 54 Mārtiņ š 10.10 48:34 04:48 12.48
14/07/18 93,3 Ønske 8.38 55:00 06:33 9.14 ir
14/07/18 Sestdienis. Paātrinājumi. SelfijuPavēlniece 16.00 1:34:24 163 05:54 10.17 ir
14/07/18 Morning run with dog sundowner 4.00 20:35 05:08 11.66 ir
14/07/18 Skrējiens LPD 15.21 1:55:18 142 07:34 7.92 ir
14/07/18 skrējiens guncha 18.30 1:25:21 159 04:39 12.86 ir
14/07/18 Četri meži ar vīru sutoņā Spāre lido 19.00 2:06:20 06:38 9.02 ir
14/07/18 09:59 Dziņa 6.57 43:16 149 06:35 9.11 ir
14/07/18 Bērzu ceļš RimantsL 17.63 1:42:12 05:47 10.35 ir
14/07/18 Running Aivysuperman 10.02 50:33 148 05:02 11.89 ir
14/07/18 kross bunfunk 4.00 17:19 04:19 13.86
14/07/18 labi noskriets M_Freimis 10.23 1:33:36 09:08 6.56
14/07/18 CCC v1.22 (Atgriežoties ierindā) Džokers 7.50 32:41 04:21 13.77 ir
14/07/18 Skrējiens Alarion 7.50 1:30:10 129 12:01 4.99 ir
14/07/18 pa taciņu gar Gauju +25 grādos Dina 8.30 53:35 153 06:27 9.29 ir
14/07/18 Jūlija 45’nieks, ļoti saulains, 12:30 personaskods 8.05 52:08 162 06:28 9.26 ir
14/07/18 Rīta riksis Cassandra 2.80 16:11 05:46 10.38 ir
14/07/18 rajončiks Rozens 11.76 1:03:02 142 05:21 11.19 ir
14/07/18 Skrējiens mtiger 11.05 48:20 04:22 13.72 ir
14/07/18 (81.0) pludmale Kampars 5.40 29:46 05:30 10.88
14/07/18 rāmā rīta rosme stjopachio 9.22 45:59 126 04:59 12.03 ir
14/07/18 Eksistenciāls kartupeļu maiss Jay-P 25.02 2:28:00 140 05:54 10.14 ir
14/07/18 Skrējiens andis161 9.40
14/07/18 103. Didzis 18.34 2:21:13 07:41 7.79 ir
14/07/18 RR Inga_K 4.61 25:52 141 05:36 10.69 ir
14/07/18 Treniņš Signis 5.23 30:03 05:44 10.44 ir
14/07/18 Skrējiens frišais 5.90 31:29 05:20 11.24 ir
14/07/18 Skrējiens AivisP 10.50 1:05:32 06:14 9.61 ir
14/07/18 53 Mārtiņ š 8.02 39:14 04:53 12.27
14/07/18 Skrējiens lerychv 7.88 47:00 122 05:57 10.06 ir
14/07/18 Skrējiens 6.00 29:03 04:50 12.39 ir
14/07/18 m js79 4.60 ir
14/07/18 Skrējiens Zigis 12.13 1:04:33 05:19 11.27
14/07/18 Skrējiens Ila_Kantī 3.00 19:31 06:30 9.22
14/07/18 Skrējiens VilnisV 7.05 47:06 06:40 8.98 ir
14/07/18 sesdieniņš normundiņš 6.01 38:11 152 06:21 9.44 ir
14/07/18 Skrējiens vitjka 13.01 1:35:32 07:20 8.17 ir
14/07/18 Skrējiens sjordzis 11.23 1:00:03 05:20 11.22 ir
14/07/18 Skrējiens ErvinsK 3.11 23:10 07:26 8.05 ir
14/07/18 Skrējiens lerychv 2.43 15:49 06:30 9.22
14/07/18 rīta pikols 10.58 1:21:58 125 07:44 7.74 ir
14/07/18 Skrējiens Ievinja 14.16 1:30:45 06:24 9.36 ir
14/07/18 Pēc salacgr traumas maruks 11.25 1:03:03 128 05:36 10.71
14/07/18 Treniņš Nr.32 Ingus84 3.00 18:15 06:05 9.86 ir
14/07/18 Skrējiens garaissss 10.45 56:13 143 05:22 11.15 ir
14/07/18 ] rīts cumulus 10.01 43:12 154 04:18 13.90 ir
13/07/18 Intervāli pa lietu un dubļiem Naurītis 9.67 45:30 153 04:42 12.75 ir
13/07/18 13/07/2018 CheekyDevil 3.57 24:42 06:55 8.67 ir
13/07/18 Skrējiens anup 6.09 31:34 05:11 11.58 ir
13/07/18 Velomenu tā arī nenoķēru matiss 12.60 1:04:32 123 05:07 11.71 ir
13/07/18 ar arni treil Ilze 11.09 1:22:00 153 07:23 8.11 ir
13/07/18 Piektdienis Rainy777 2.60 ir
13/07/18 T avalanche 4.97
13/07/18 pirms sacensībām 30 min tipiens EK1983 3.60 30:07 147 08:21 7.17 ir
13/07/18 vakarā 22*, 1908.g.Pirmoreiz Olimpiskajās spēlēs piedalījās sievietes JK 2.62 19:01 07:15 8.27 ir
13/07/18 Pa pilsētu spruuds 8.00 40:37 05:04 11.82 ir
13/07/18 Skrējiens xorix 4.29 25:32 05:57 10.08 ir
13/07/18 Skrējiens redere18 3.33 21:58 06:35 9.10 ir
13/07/18 V Trakais 9.52 38:06 04:00 14.99 ir
13/07/18 Skrējiens Laaurappeeterzone 6.82 39:41 144 05:49 10.31 ir
13/07/18 treniņš rotācijukaraliene 4.28 35:00 08:10 7.34 ir
13/07/18 Skrējiens IevaGoba 4.60 28:36 06:13 9.65
13/07/18 ... Geo 9.00 51:31 146 05:43 10.48 ir
13/07/18 Kāpas AndrisJ 5.20 31:27 06:02 9.92 ir
13/07/18 Skrējiens Džuna 12.06 1:12:00 05:58 10.05 ir
13/07/18 11.90 km zvaigzne 11.90 1:09:00 05:47 10.35 ir
13/07/18 Skrējiens pēc darba; 22:30 Jolis 15.30 1:20:51 05:17 11.35
13/07/18 Uz džudo. Didzo 3.61 19:02 05:16 11.38 ir
13/07/18 8 marcix 8.04 38:16 04:45 12.61 ir
13/07/18 Intas mežs Rozamunde 13.02 1:26:58 06:40 8.98 ir
13/07/18 Treniņš Richa_K 8.11 44:47 133 05:31 10.87 ir
13/07/18 Māras dīķis x2; fartleks topinjs 8.88 46:24 05:13 11.48 ir
13/07/18 Skrējiens Kru 8.92 47:56 05:22 11.17 ir
13/07/18 90 - pēc lietus zusurs 8.10 51:38 06:22 9.41 ir
13/07/18 Skrējiens LaimaZ 7.52 45:23 123 06:02 9.94 ir
13/07/18 Iesild und 6.00 30:09 05:01 11.94 ir
13/07/18 Skrējiens laurinaaaa 2.80 25:53 09:14 6.49 ir
13/07/18 ar ratiem pa stadionu +7km walk eees 8.00 45:39 143 05:42 10.51 ir
13/07/18 Jelgavas pusmaratons bredato 21.15 1:26:33 182 04:05 14.66 ir
13/07/18 Skrējiens PaulEdgecomb 11.56 1:03:20 05:28 10.95
13/07/18 Melnezers sergejs1 6.13 39:24 06:25 9.34 ir
13/07/18 194. vitaminka D 6.12 27:18 04:27 13.45 ir
13/07/18 Lēnām. Uldzha 5.22 37:38 07:12 8.32
13/07/18 Warmup cool down runnerchick 3.00 17:00 05:40 10.59 ir
13/07/18 Апатитский полумарафон по холмам runnerchick 21.10 1:34:42 04:29 13.37 ir
13/07/18 Skrējiens Lauris 11.13 1:13:15 145 06:34 9.12 ir
13/07/18 20km pulsā forshais1 20.00 1:48:45 05:26 11.03 ir
13/07/18 kross bunfunk 11.20 49:00 132 04:22 13.71
13/07/18 Pēdējais pirms Jelgavas pusmaratona James87 7.50 32:30 04:20 13.85 ir
13/07/18 velo 44km(Jelgavniece)-29km/h;142: Rozens 1.00 06:00 06:00 10.00 ir
13/07/18 Pa Jūrmalu Samiks 9.43 51:59 05:30 10.88
13/07/18 Slodzes tests Signis 2.50 18:00 07:12 8.33 ir
13/07/18 3 komats pieci Jay-P 3.52 21:00 129 05:57 10.06 ir
13/07/18 tipu tapu GintsK 24.49 3:21:47 08:14 7.28 ir
13/07/18 Skrējiens ONils 9.98 48:27 04:51 12.36 ir
13/07/18 viduvējais Ugisdatavs 20.10 1:45:10 128 05:13 11.47 ir
13/07/18 atkal MK70 3.29 18:40 139 05:40 10.58 ir
13/07/18 Skrējiens ilzemuc 4.19 36:44 08:46 6.84
13/07/18 Skrējiens valtijs 3.27 18:59 05:48 10.34 ir
13/07/18 Skrējiens Martinits1 3.71 20:44 05:35 10.74 ir
13/07/18 Skrējiens raraitis 8.00 40:23 05:02 11.89 ir
13/07/18 Skrējiens Jurgis_Klav 5.50 41:05 07:28 8.03
13/07/18 Skrējiens didzzzons 12.77 58:03 04:32 13.20
13/07/18 Skrējiens agnijs 6.01 32:09 05:20 11.22
13/07/18 Skrējiens mriden 7.06 40:54 05:47 10.36
13/07/18 Skrējiens dachuks 3.12 24:13 07:45 7.73
13/07/18 Skrējiens rihardsf 0.65 04:24 06:46 8.86 ir
13/07/18 Skrējiens rihardsf 5.53 33:41 06:05 9.85 ir
13/07/18 Skrējiens Gatis Krūze 3.01 15:28 05:08 11.68
13/07/18 Skrējiens pirms Jelgavas pusmaratona galateja 5.79 37:52 06:32 9.17 ir
13/07/18 Skrējiens Janis_O 2.08 10:50 05:12 11.52 ir
13/07/18 Skrējiens Miezers 15.15 1:27:01 05:44 10.45 ir
13/07/18 Spānija,pašā rīta agrumā lielaa saule 6.04 34:37 05:43 10.47 ir
13/07/18 Skrējiens Laur26 10.01 58:10 05:48 10.33
13/07/18 Skrējiens Martins.Krumins 10.03 46:06 04:35 13.05 ir
13/07/18 Skrējiens guntars.bumans 9.01 45:57 05:05 11.76
13/07/18 tonussss puuce 10.04 52:07 133 05:11 11.56 ir
13/07/18 Skrējiens Zigis 11.75 1:06:08 05:37 10.66
13/07/18 Skrējiens KarlisIelejs 2.73 15:59 05:51 10.25
13/07/18 Skrējiens LEICHA 13.91 1:23:37 06:00 9.98
13/07/18 Skrējiens Janile 17.03 1:24:39 04:58 12.07
13/07/18 Skrējiens johaidi 9.36 55:38 05:56 10.09 ir
13/07/18 Skrējiens burunduks 5.16 33:05 06:24 9.36 ir
13/07/18 Skrējiens Anda0 3.07 19:41 06:24 9.36 ir
13/07/18 5km (3z2-1z5-1z2) MBirums 5.24 26:45 141 05:06 11.75 ir
13/07/18 Skrējiens KarīnaK 5.49 33:35 06:07 9.81 ir
13/07/18 Skrējiens KarīnaK 6.47 37:54 05:51 10.24 ir
13/07/18 Skrējiens Azveja 10.20 1:11:02 06:57 8.62 ir
13/07/18 intervāli: (1km x4) + (250m x2) drafts 10.66 59:56 151 05:37 10.67 ir
13/07/18 Skrējiens vaicis 16.01 1:24:19 05:15 11.39
13/07/18 Jelgava gaidi, būšu! Ginc 8.40 53:33 06:22 9.41 ir
13/07/18 Zem lietus 8.6 + 10x100m + 3x10 lec. + estr. kap. l. Csinipatas 13.00 1:03:00 04:50 12.38 ir
13/07/18 Takas un pampaciņi Cassandra 11.07 1:04:18 05:48 10.33 ir
13/07/18 Rosme ar suni Csinipatas 4.10 22:17 05:26 11.04 ir
13/07/18 Piektdienas mierīgais noris 8.28 43:32 05:15 11.41 ir
13/07/18 Skrējiens mtiger 16.10 1:16:48 136 04:46 12.58 ir
13/07/18 Piektdien Biruta 12.33 1:09:03 05:36 10.71 ir
13/07/18 Pa Rozīša ceļu Pičuks Dz 5.20 34:24 132 06:36 9.07
13/07/18 Vakara +18 Z3 ar dūmakainu saulīti Aldis B 6.24 39:10 159 06:16 9.56 ir
13/07/18 Vāveres ielūdz #2.42 chunka 7.91 47:21 05:59 10.02 ir
13/07/18 Meditācija Miksons 5.85 27:22 04:40 12.83 ir
13/07/18 2km <145bpm + 3 x 200m 80% caur 300m + 2km <145bpm Māris91 5.50 30:27 139 05:32 10.84 ir
13/07/18 117.treniņš Daiguciitis 10.74 1:06:32 06:11 9.69 ir
13/07/18 Pa lietu Ginchaa 19.35 1:49:20 135 05:39 10.62
13/07/18 Atkal trāpījos pa lietu uldis15 20.00 1:37:53 04:53 12.26 ir
13/07/18 Anniņmuižas mežiņš Inta Amoliņa 10.09 1:10:54 158 07:01 8.54 ir
13/07/18 Belgrade EdgarsBR 13.00 1:13:30 05:39 10.61 ir
13/07/18 Liepāja, ātrums eddyboyz 8.00 36:48 180 04:36 13.04 ir
13/07/18 Skrējiens 13.00 1:04:05 04:55 12.17 ir
13/07/18 Mežaparkā tik kluss un mierīgs Sauļuks 31.21 3:00:47 05:47 10.36 ir
13/07/18 Skrējiens LPD 12.12 1:16:04 150 06:16 9.56 ir
13/07/18 Vakara skrējiens Edmunds 16.14 1:22:13 05:05 11.78 ir
13/07/18 run JānisV 6.66 30:49 138 04:37 12.97 ir
13/07/18 skrējiens 18-07/5 sturitis 8.74 48:18 154 05:31 10.86 ir
13/07/18 Mierīgs atjaunošanās skrējiens. kalnu_žubīte 4.72 30:51 147 06:32 9.18 ir
13/07/18 Noliju slapja! anciite 5.01 30:35 06:06 9.83 ir
13/07/18 PirmsJelgavas lēnais Aruurs 5.00 30:37 06:07 9.80 ir
13/07/18 ] aplīši (+253) cumulus 31.02 2:38:54 139 05:07 11.71 ir
13/07/18 aer villijs78 5.03 28:44 135 05:42 10.50 ir
13/07/18 Paskrējiens Ize_De 11.03 1:19:59 07:15 8.27 ir
13/07/18 Karstais pēc darba. aijuciiic 8.10 51:16 06:19 9.48 ir
13/07/18 Uz Rullīti zirnis 5.79 34:08 05:53 10.18 ir
13/07/18 5diena Gatis.K 20.20 1:40:03 140 04:57 12.11 ir
13/07/18 Skrējiens borga 10.28 52:00 152 05:03 11.86 ir
13/07/18 Pulsa Trenins Freelancer 11.23 1:00:44 132 05:24 11.09 ir
13/07/18 Skrējiens Chuncha 6.00 32:29 05:24 11.08 ir
13/07/18 Skrienlatvija191 Alvis D 7.00 42:07 06:01 9.97 ir
13/07/18 Braslas taka. Negaiss. [+212m] RimantsL 9.58 1:20:28 08:23 7.14 ir
13/07/18 vakara pikols 2.00 12:45 06:22 9.41
13/07/18 bez iedvesmas... Špicka 6.50 42:32 06:32 9.17 ir
13/07/18 asfalts kveks 10.00
13/07/18 Pulss daskilla 9.67 57:31 114 05:56 10.09 ir
13/07/18 5km Tempo. Lietus un peļķes, skaļi! +22 (RF +23), 17:09 antra 9.49 1:00:17 154 06:21 9.45 ir
13/07/18 skrejiens Superkaplis 1.90 08:07 04:16 14.05
13/07/18 Stadions aicis 6.00 29:04 04:50 12.39 ir
13/07/18 Skrējiens edžus11 1.01 05:01 151 04:58 12.08 ir
13/07/18 Skrējiens edžus11 10.01 53:07 162 05:18 11.31 ir
13/07/18 Skrienam Liepājā krekliņa ievētīšana:) jestrais 10.01 1:02:29 141 06:14 9.61 ir
13/07/18 M30 Kalnu Dace 3.00 27:15 115 09:05 6.61 ir
13/07/18 Gar jūru, ar plikām kājām kļučiks 5.03 27:45 05:31 10.88
13/07/18 Pirms pērkongrāvieniem. Hiēna 14.25 1:20:55 05:40 10.57 ir
13/07/18 mazais aplis J-pilī/smacīgs gaiss aKasIr 5.30 27:43 05:13 11.47 ir
13/07/18 9k pārdaugava KapteinisE 8.80 51:00 05:47 10.35 ir
13/07/18 11:26 Salaspils stadions(5x100m kāpinājumi+8x200m ātri/+23) GačusSkrunda 10.65 48:33 04:33 13.16 ir
13/07/18 Paskrējiens Shuma 9.70 1:01:59 143 06:23 9.39 ir
13/07/18 Rīts uz Raudas pusi un atpakaļ englishteacher 6.00 35:49 05:58 10.05 ir
13/07/18 Pokljukas treils. Huch 11.98 1:03:08 05:16 11.39 ir
13/07/18 Skrējiens Wictoria 10.72 56:28 05:16 11.39 ir
13/07/18 #127.3.5. JurBer 7.39 1:03:09 135 08:32 7.02 ir
13/07/18 Skrējiens Dzintars 7.05 37:10 05:16 11.38 ir
13/07/18 Pēc stadiona vingrisanas mazie sprinti 5 seti: 20s lēnil 20s sprints utt.  Gīča 1.00 03:57 97 03:57 15.19
13/07/18 Skrējiens lerychv 7.59 45:09 107 05:56 10.09 ir
13/07/18 Skrējiens oskarsdamb 7.03 37:31 05:20 11.24 ir
13/07/18 Skrējiens LEICHA 4.25 30:32 07:11 8.35
13/07/18 Skrējiens santux 4.50 30:08 06:41 8.96
13/07/18 Skrējiens Ila_Kantī 11.64 1:14:11 06:22 9.41
13/07/18 Skrējiens lerychv 1.51 09:36 06:21 9.44
13/07/18 Skrējiens Bubu 15.71 1:14:36 04:44 12.64 ir
13/07/18 Skrējiens ievala 4.16 27:04 06:30 9.22
13/07/18 Skrējiens Ainīc 13.13 1:17:58 05:56 10.10 ir
13/07/18 baigi sutīgs gaiss zandarts 5.41 33:20 142 06:09 9.74 ir
13/07/18 Skrējiens Nix65 7.61 44:53 05:53 10.17 ir
13/07/18 rīta maziņais uz darbu stjopachio 5.05 25:12 117 04:59 12.02 ir
13/07/18 Skrējiens Sikspārnis 9.64 53:29 05:32 10.81
13/07/18 Vāveres ielūdz no rītiem. sigita 8.48 50:22 05:56 10.10 ir
13/07/18 Vāveres ielūdz #2.42 Berlīnes lāči. SelfijuPavēlniece 10.40 1:02:20 146 05:59 10.01 ir
13/07/18 Li edGars 5.00 32:26 06:29 9.25 ir
13/07/18 Vāveres ielūdz no rītiem #2.42 Viktoriinii 13.76 1:15:40 05:29 10.91 ir
13/07/18 Running Aivysuperman 5.51 31:17 124 05:40 10.57 ir
12/07/18 Skrējiens bratiņš 8.04 46:35 05:47 10.36
12/07/18 Ceturtdienis Rainy777 4.10 ir
12/07/18 Treniņš IngaAD 5.43 31:38 05:49 10.30
12/07/18 dienas Jhonsons 5.00 26:18 05:15 11.41 ir
12/07/18 Skrējiens Lapsene 5.32 32:04 06:01 9.95 ir
12/07/18 Skrējiens IevaGoba 5.99 35:29 05:55 10.13
12/07/18 ,,, Geo 5.00 32:46 130 06:33 9.16 ir
12/07/18 Rīta rosme AndrisJ 3.15 17:03 05:24 11.09 ir
12/07/18 rīta pludmale teicamnieks 4.00 ir
12/07/18 Treniņš alex1255 8.23 56:03 147 06:48 8.81 ir
12/07/18 Uz svariem. Didzo 3.67 19:17 05:15 11.42 ir
12/07/18 Mierīgi, mierīgi Raitis 14.30 1:13:55 05:10 11.61 ir
12/07/18 skrējiens vetrasputns 6.12 40:00 139 06:32 9.18 ir
12/07/18 Treniņš Richa_K 8.14 43:40 134 05:21 11.18 ir
12/07/18 lietus skrejiens+p a-kodejs 12.32 1:14:04 148 06:00 9.98 ir
12/07/18 Skrējiens Kru 12.16 1:06:58 05:30 10.89 ir
12/07/18 Trenina.  Simis 2.60 11:22 04:22 13.72
12/07/18 Skrējiens Logins 5.69 36:57 157 06:29 9.24 ir
12/07/18 ... Aļona 10.05 1:11:32 07:07 8.43 ir
12/07/18 Purvciems +5km walk eees 8.02 44:44 140 05:34 10.76 ir
12/07/18 Skrējiens Elhana 7.02 52:45 07:30 7.98 ir
12/07/18 Rīta skrējiens Krī 10.29 54:04 05:15 11.42 ir
12/07/18 Basām Jaunmārupē ar sievu einmed 7.12 58:34 107 08:13 7.29 ir
12/07/18 Uphill sundowner 2.50 13:00 05:12 11.54 ir
12/07/18 Viegls atjaunošanās skrējiens James87 11.00 52:32 134 04:46 12.56 ir
12/07/18 Treniņš Misters 6.97 30:27 04:22 13.73 ir
12/07/18 viduvējais Ugisdatavs 16.60 1:26:00 05:10 11.58 ir
12/07/18 Skrējiens Zipcis 0.46 08:11 17:47 3.37 ir
12/07/18 Skrējiens Janis_O 2.08 10:28 05:01 11.92 ir
12/07/18 Pa Spānijas pauguriem lielaa saule 5.34 31:27 05:53 10.19 ir
12/07/18 3.2 + vingr. uz rokam (skilli) (b .piev. 2x6+aust. + 4x14-12 dips/1) Csinipatas 4.60 25:00 05:26 11.04 ir
12/07/18 Valmieras Magnēta 13.kārta - Vaidava ArnisŠ 3.82 20:46 05:26 11.04
12/07/18 Hill Fartleks Freelancer 13.65 1:45:01 123 07:41 7.80 ir
12/07/18 asfalts kveks 10.00
12/07/18 Bezjaudas faktors 2 Jay-P 5.06 30:30 132 06:01 9.95 ir
12/07/18 ventspils jurcha 19.15 1:53:08 127 05:54 10.16
12/07/18 Venden treniņš ar Anitu Zanda19 5.78 46:02 131 07:57 7.53 ir
12/07/18 ar dēliņu ciks 7.00 40:19 05:45 10.42 ir
12/07/18 Vakara slinkais Zeķīte 7.00 45:20 06:28 9.26 ir
12/07/18 12/07/2018 CheekyDevil 9.00 1:07:28 07:29 8.00 ir
12/07/18 Kā jau ceturdienā ivitis 4.80 28:31 05:56 10.10
12/07/18 V Trakais 9.07 39:25 04:20 13.81 ir
12/07/18 #Montreux Week 3 20' + drill + 5x100 + 4x2km @ 4:00 ar 2' + 5' rubernmardom 15.00 1:09:48 134 04:39 12.89 ir
12/07/18 WU-20'+drill+5x100m+6km@4:15+CD-10' forshais1 12.69 1:02:00 04:53 12.28 ir
12/07/18 skrējiens KitijaB 2.82 18:57 06:43 8.93
12/07/18 Skrējiens ferons 7.32 1:19:05 10:48 5.55
12/07/18 Skrējiens xorix 4.18 25:22 06:04 9.89 ir
12/07/18 tempiņš 8km, pa mežu drafts 14.51 1:12:37 149 05:00 11.99 ir
12/07/18 Skrējiens DK86 11.52 59:31 137 05:09 11.61 ir
12/07/18 Skrējiens Sinta1 2.00 11:58 05:59 10.03 ir
12/07/18 Joprojām ar dziesmu skai-tlot-ajs 5.50 33:13 06:02 9.93 ir
12/07/18 No baseina. sigita 5.00 30:12 06:02 9.93 ir
12/07/18 Uz baseinu sigita 5.60 33:00 05:53 10.18 ir
12/07/18 89 - BBPU 6. koptreniņš zusurs 8.03 49:46 06:11 9.68 ir
12/07/18 Gazele 32| 2018 Mazzinsh 4.85 24:40 05:05 11.80
12/07/18 Ceturtdienas mierīgais noris 10.06 52:12 05:11 11.56 ir
12/07/18 Lēns un 6*200  EvijaK 9.60 1:05:40 06:50 8.77
12/07/18 Skrējiens ATOM 5.00 29:13 169 05:50 10.27 ir
12/07/18 nav nosaukuma ush 7.58 40:05 127 05:17 11.35 ir
12/07/18 Skrējiens Maiznieks 11.50 1:00:43 05:16 11.36
12/07/18 Līdz Dienvidu tiltam Renee 10.43 1:01:26 156 05:53 10.19 ir
12/07/18 Treniņš 2x3'/2' Duuu-da 8.00 46:16 05:47 10.37 ir
12/07/18 WMOC long modeļa karte ildze 4.10 39:30 09:38 6.23 ir
12/07/18 Skrējiens agnijs 11.33 1:05:41 05:47 10.35
12/07/18 Skrējiens Ievinja 7.60 1:07:10 08:50 6.79 ir
12/07/18 Skrējiens M.Po 12.31 1:10:40 05:44 10.45 ir
12/07/18 Skrējiens LEICHA 9.95 1:05:51 06:37 9.07
12/07/18 Skrējiens bukss_a 6.42 41:11 06:24 9.35
12/07/18 Skrējiens sominens 10.06 1:00:02 05:58 10.05 ir
12/07/18 Skrējiens Birkofs 12.47 1:21:53 06:33 9.14
12/07/18 Skrējiens AlteR-EgO 13.04 1:24:31 06:28 9.26
12/07/18 Skrējiens Sikspārnis 12.51 1:07:15 05:22 11.16
12/07/18 Skrējiens AivisP 11.97 1:04:18 05:22 11.17 ir
12/07/18 Skrējiens ZZ88 13.21 1:23:31 06:19 9.49 ir
12/07/18 Skrējiens kalvicc94 15.53 1:10:01 04:30 13.31 ir
12/07/18 Skrējiens Natthe 7.00 41:13 138 05:53 10.19 ir
12/07/18 Skrējiens Klaavs 16.31 1:37:33 05:58 10.03 ir
12/07/18 Skrējiens JanJ 7.58 38:00 05:00 11.97
12/07/18 Skrējiens Andis87 9.00 51:14 05:41 10.54 ir
12/07/18 Skrējiens SandisC 2.64 17:52 06:46 8.87 ir
12/07/18 Skrējiens SandisC 5.82 36:33 06:16 9.55 ir
12/07/18 Skrējiens ezisskrien 7.37 37:20 05:03 11.84 ir
12/07/18 Skrējiens didzzzons 10.69 49:37 04:38 12.93
12/07/18 Skrējiens Bubu 22.26 1:55:37 05:11 11.55 ir
12/07/18 193. vitaminka D 11.02 49:47 04:31 13.28 ir
12/07/18 Skrējiens coffee 6.02 32:33 05:24 11.10 ir
12/07/18 Skrējiens Nix65 10.01 58:21 05:49 10.29 ir
12/07/18 Skrējiens bunbinja 4.53 32:11 07:06 8.45 ir
12/07/18 Ar hidru mugursomā pēc arbūza matiss 10.61 1:03:42 104 06:00 9.99 ir
12/07/18 Skrējiens MārcisB 6.29 37:59 06:02 9.94 ir
12/07/18 Skrējiens MārcisB 9.00 45:13 05:01 11.94 ir
12/07/18 Skrējiens raraitis 13.41 56:01 04:10 14.36 ir
12/07/18 Skrējiens Rasmiks 6.26 41:23 06:36 9.08
12/07/18 Skrējiens freeda 7.63 44:59 05:53 10.18 ir
12/07/18 Skrējiens Valters 12.50 1:30:09 07:12 8.32 ir
12/07/18 Skrējiens mozgovoj ribak 12.00 54:02 04:30 13.33 ir
12/07/18 Skrējiens valtijs 3.17 19:02 06:00 9.99 ir
12/07/18 +28 thunder man 13.01 1:08:24 136 05:15 11.41 ir
12/07/18 Skrējiens Arweed 7.50 39:38 05:17 11.35 ir
12/07/18 Skrējiens ttyson 12.06 1:11:36 05:56 10.11
12/07/18 Skrējiens IlgaisC 10.39 1:13:38 07:05 8.47
12/07/18 Skrējiens andronkuls 10.09 54:01 05:21 11.21 ir
12/07/18 Skrējiens Ainīc 10.00 58:42 05:52 10.22 ir
12/07/18 Skrējiens Zigis 17.54 1:33:59 05:21 11.20
12/07/18 Atsildīšanās Kalnu Dace 2.00 22:30 120 11:15 5.33 ir
12/07/18 Skrējiens KarlisIelejs 2.67 16:51 06:18 9.51
12/07/18 Skrējiens KarlisIelejs 1.92 11:41 06:05 9.86
12/07/18 Skrējiens KarlisIelejs 6.88 1:21:30 11:50 5.07
12/07/18 3x2km caur 2min.40sek. Kalnu Dace 7.00 36:45 05:15 11.43 ir
12/07/18 Skrējiens Anncce 1.85 11:24 06:09 9.74
12/07/18 Skrējiens Anncce 1.65 10:06 06:07 9.80
12/07/18 Skrējiens Anncce 1.31 08:25 06:25 9.34
12/07/18 Iesildīšanās Kalnu Dace 2.00 14:40 130 07:20 8.18 ir
12/07/18 Skrējiens MIk 9.73 51:01 05:14 11.44 ir
12/07/18 Skrējiens Casperr 7.94 37:49 04:45 12.60 ir
12/07/18 Skrējiens Andrex 10.06 59:28 05:54 10.15
12/07/18 Skrējiens irsiitis 5.02 35:37 07:05 8.46
12/07/18 Skrējiens cheburs 11.99 1:07:26 05:37 10.67 ir
12/07/18 Balvi_dzintara krāsas saulriets Dace_Sofija 6.48 43:08 159 06:39 9.01 ir
12/07/18 Run maffija 5.60 30:24 05:25 11.05 ir
12/07/18 Rīta rosme. Plieņciems. RimantsL 3.55 19:48 05:34 10.76 ir
12/07/18 Skrējiens chunka 10.90 57:41 05:17 11.34 ir
12/07/18 vakara treniņš mihails.basmanovs 6.21 32:10 05:10 11.58
12/07/18 skrējiens Kachinjsh 5.00 35:04 135 07:00 8.56 ir
12/07/18 Treniņš T vnkIndra 2.41 11:47 140 04:53 12.27 ir
12/07/18 Ceturtdienis pa lietu Lasma3 7.10 51:17 145 07:13 8.31 ir
12/07/18 atkal MK70 3.23 21:03 139 06:31 9.21 ir
12/07/18 Pūkains Cassandra 12.15 1:08:08 05:36 10.70 ir
12/07/18 Magnēts Rasels 7.60 54:30 142 07:10 8.37 ir
12/07/18 Skriešanas seriāla 7.posms - Lielaisciems englishteacher 12.00 58:25 04:52 12.33 ir
12/07/18 Pa meža ceļu Pičuks Dz 2.30 16:19 07:05 8.46
12/07/18 Skriešana  peteljka + uprazhnenija Tatjana1999 6.60 39:21 05:57 10.06
12/07/18 Baza - dom Tatjana1999 5.00 31:31 06:18 9.52
12/07/18 pa mezu Superkaplis 0.90 05:58 157 06:37 9.05
12/07/18 4diena Gatis.K 15.10 1:10:05 136 04:38 12.93 ir
12/07/18 atrais skrejiens Superkaplis 1.01 04:49 172 04:46 12.58
12/07/18 Dom - baza Tatjana1999 4.84 30:41 06:20 9.46
12/07/18 atsildīšanās Daiguciitis 1.87 13:26 07:11 8.35 ir
12/07/18 Siltas peļķes Ieva 0.75 03:53 05:10 11.59 ir
12/07/18 Magnēts Daiguciitis 8.69 1:07:49 07:48 7.69 ir
12/07/18 iesildīšanās Daiguciitis 1.88 12:33 06:40 8.99 ir
12/07/18 Iesild, 6x(800mĀ+400mL), atsild, apmācies, +23C sola.scriptura 11.27 1:25:22 152 07:34 7.92 ir
12/07/18 3x1.2 muskulītis 3.60 18:12 162 05:03 11.87 ir
12/07/18 Skrējiens anup 6.00 30:44 05:07 11.71 ir
12/07/18 Gatavojos pusmaratonam RobertsR 5.14 24:02 158 04:40 12.83 ir
12/07/18 Kūpers un citi zvēri seismologs 9.65 51:32 144 05:20 11.24 ir
12/07/18 120.Brīvsolis - Lielaisciems ilvarito 13.44 1:07:44 05:02 11.91 ir
12/07/18 Pirms un pēc treniņa Heņča 1.70 10:48 06:21 9.44 ir
12/07/18 Smārdes skriešanas seriāls - Lielaisciems Aruurs 13.60 1:05:44 04:50 12.41 ir
12/07/18 Mežaparks alushox 10.89 47:02 167 04:19 13.89 ir
12/07/18 pēc negaisa vakarā, +24C Lote 6.22 38:28 06:11 9.70 ir
12/07/18 Mežaparks alushox 2.34 11:42 146 05:00 12.00 ir
12/07/18 20:35 Salaspils(+19 un smidzina lietus) GačusSkrunda 13.00 1:05:08 05:00 11.98 ir
12/07/18 Mežaparks alushox 4.89 26:53 130 05:29 10.91 ir
12/07/18 Vecāķu pludmale pa baso gasha 19.00 2:00:50 06:21 9.43
12/07/18 Skanstes aplis Toms_Ra 6.10 30:09 04:56 12.14 ir
12/07/18 2018.41 edgarsc 4.00 28:08 141 07:02 8.53 ir
12/07/18 Forši, ka tomēr sanāca laiks izskriet Ginchaa 10.73 1:00:29 129 05:38 10.64
12/07/18 52 Mārtiņ š 14.00 1:26:11 06:09 9.75
12/07/18 lucavsala bredato 15.60 1:20:07 148 05:08 11.68 ir
12/07/18 run JānisV 10.10 44:57 142 04:27 13.48 ir
12/07/18 59. Brainārs 10.89 53:59 155 04:57 12.10 ir
12/07/18 Vakars pa nelielu lietiņu uldis15 20.00 1:38:00 04:54 12.24 ir
12/07/18 BBPU 6. koptreniņš OreMan 8.00 41:36 05:12 11.54 ir
12/07/18 ] atpūtas / 40-50k trases plānošana (+303) cumulus 31.33 2:43:35 141 05:13 11.49 ir
12/07/18 Veloceliņš topinjs 22.00 1:37:09 04:24 13.59 ir
12/07/18 Treniņš Rebelmusic 8.00 41:39 150 05:12 11.52
12/07/18 skrējiens AigarsOKZK 10.38 58:40 05:39 10.62 ir
12/07/18 pēc. kalnu_žubīte 0.96 08:04 146 08:24 7.14
12/07/18 Magnēts Vaidavā. kalnu_žubīte 3.21 19:08 181 05:57 10.07
12/07/18 pirms. kalnu_žubīte 1.19 08:03 143 06:45 8.87
12/07/18 tipu tapu GintsK 5.82 36:33 06:16 9.55 ir
12/07/18 skrējiens guncha 11.00 49:36 139 04:30 13.31 ir
12/07/18 tipu tapu GintsK 2.69 17:54 06:39 9.02 ir
12/07/18 Valmieras Magnēts-orient sprints Vaidavā Dina 3.30 20:24 173 06:10 9.71 ir
12/07/18 Es izgāju no ustabas zelta zvaigznes skatīties Lauma 9.49 1:00:13 141 06:20 9.46 ir
12/07/18 Desa Viktoriinii 10.00 49:40 04:58 12.08 ir
12/07/18 Uz Juglas kanālu DLK 8.39 46:14 05:30 10.89 ir
12/07/18 rīta maziņais uz darbu stjopachio 5.14 25:28 124 04:57 12.11 ir
12/07/18 Ķīpsalas kolēģu pastaiga stjopachio 5.01 30:16 98 06:02 9.93 ir
12/07/18 Treniņš Aigarsol 11.26 50:00 04:26 13.51 ir
12/07/18 pa lietutiņu... sava prieka pēc Špicka 7.50 45:51 06:06 9.81 ir
12/07/18 Veloceliņš JA 5.40 31:41 05:52 10.23
12/07/18 Ceturtdien Biruta 4.93 27:19 05:32 10.83 ir
12/07/18 (81.0) pludmale Kampars 5.30 25:45 04:51 12.35
12/07/18 Skrienlatvija190 Alvis D 10.00 39:10 03:55 15.32 ir
12/07/18 Magnēts 45#, Asaru ezers LPD 9.07 1:21:10 155 08:56 6.70 ir
12/07/18 Skrējiens Chuncha 12.00 1:03:22 05:16 11.36 ir
12/07/18 Skrējiens 6.00 28:36 04:46 12.59 ir
12/07/18 Asfalts Dzo 12.70 59:53 04:42 12.72 ir
12/07/18 Liepāja, pulss eddyboyz 3.63 26:56 126 07:25 8.09 ir
12/07/18 Basām kājām ar Loti. bantiite 6.06 36:43 06:03 9.90 ir
12/07/18 Rimi-otto Ģirtiņš 5.50 28:25 164 05:10 11.61 ir
12/07/18 Mont Royal bro 14.20 1:28:13 148 06:12 9.66 ir
12/07/18 Pulss daskilla 7.89 46:24 133 05:52 10.20 ir
12/07/18 Meditācija Miksons 7.68 32:15 04:11 14.29 ir
12/07/18 16. vavere 8.10 1:16:11 143 09:24 6.38 ir
12/07/18 Skrējiens Guna 7.73 49:52 06:27 9.30 ir
12/07/18 63 -1 diff. PTE 4.6 Karsts jau plkst. 10:00 var iet bez krekla. 26ºC bezvējšs. arturs.locmelis 11.03 52:00 150 04:42 12.73 ir
12/07/18 Treniņš Jan4uks 15.14 1:35:33 170 06:18 9.51
12/07/18 tilta Janis Millers 10.00 51:36 05:09 11.63
12/07/18 Skrējiens lerychv 2.26 16:41 07:22 8.13
12/07/18 Skrējiens lerychv 16.02 1:31:35 131 05:43 10.50 ir
12/07/18 Katlakalns - Rāmava savanna 9.61 53:45 05:35 10.73 ir
12/07/18 Zilie kalni +28 EdgarsBR 16.02 1:25:24 05:19 11.26 ir
12/07/18 Skrējiens Dzintars 10.10 48:14 04:46 12.56 ir
12/07/18 Ar ratiem. sanitux 6.83 50:42 146 07:25 8.08 ir
12/07/18 64.vsk. apļi (3-2-1-0.5) guncha 6.50 24:23 03:45 15.99 ir
12/07/18 pirms darba Beris 7.72 1:02:10 136 08:03 7.45 ir
12/07/18 kross uz darbu bunfunk 12.00 50:04 135 04:10 14.38 ir
12/07/18 Lēnām uz bantes Maikijs 1.55 13:33 08:44 6.86
12/07/18 Skrējiens sjordzis 5.75 33:10 05:46 10.40 ir
12/07/18 9km ieklaujot 3x2min atri caur 2min leni. Kads traktorists no traktora:"sveiciens sportistiem" :-) Gīča 9.00 43:21 139 04:49 12.46 ir
12/07/18 Skrējiens vitjka 9.34 54:58 05:53 10.20 ir
12/07/18 Skrējiens KarīnaK 10.21 59:46 05:51 10.25 ir
12/07/18 Skrējiens Stupinss 4.25 20:53 04:54 12.21 ir
12/07/18 Skrējiens Miezers 10.10 59:03 05:50 10.26 ir
12/07/18 7:28 Pludmale (+19)(72.7) unknown 8.28 45:25 154 05:29 10.94
12/07/18 Treniņš Alvals 12.02 1:06:30 05:31 10.85 ir
12/07/18 Skrējiens LEICHA 4.31 30:17 07:01 8.54
12/07/18 Skrējiens Ila_Kantī 3.83 23:49 06:13 9.65
12/07/18 Skrējiens zandarts 5.59 34:48 135 06:13 9.64 ir
12/07/18 Labrīt, ceturtdienā! SelfijuPavēlniece 10.00 1:05:28 139 06:32 9.16 ir
12/07/18 pirms darbiņa- saliņa Diddi 5.85 38:58 06:39 9.01 ir
12/07/18 no rīta 18*, Kiribati - Neatkarības diena JK 1.64 11:32 07:01 8.53 ir
12/07/18 V Trakais 6.06 27:10 04:28 13.38 ir
12/07/18 neskrienas un neēdas (avenes nopļautas) Sanča_Ro 7.00 53:41 120 07:40 7.82 ir
12/07/18 Rīts, +15 jurdoms 6.03 40:26 06:42 8.95 ir
12/07/18 rīta pikols 10.61 1:17:19 07:17 8.23 ir
12/07/18 Li atspiešanās 3x25 edGars 4.92 29:34 06:00 9.98 ir
12/07/18 Running Aivysuperman 6.02 35:26 122 05:53 10.19 ir
12/07/18 102. Didzis 5.78 42:29 07:21 8.16 ir
11/07/18 Skrejiens VP13 5.17 24:30 04:44 12.66 ir
11/07/18 Azimuta vasara Spicieris polar 6.92 48:47 160 07:02 8.51 ir
11/07/18 tempo Ilze 7.15 45:54 06:25 9.35 ir
11/07/18 Trešdienis Rainy777 6.50 ir
11/07/18 T avalanche 5.90
11/07/18 skrējiens Mermaid 6.00 31:59 05:19 11.26 ir
11/07/18 Skrējiens Juris Brēdiķis 7.05 43:46 06:12 9.66 ir
11/07/18 Skrējiens Juris Brēdiķis 7.03 45:49 06:31 9.21 ir
11/07/18 Intervālu treniņš rotācijukaraliene 7.86 50:00 06:21 9.43 ir
11/07/18 Cietoksnis, koptreniņš Juoņs 9.66 1:01:29 141 06:21 9.43 ir
11/07/18 Rīts AndrisJ 3.01 16:41 05:32 10.83 ir
11/07/18 Rita rosme azhons 1.50 08:10 05:26 11.02 ir
11/07/18 Uz džudo. Didzo 3.93 20:13 05:08 11.66 ir
11/07/18 Ātrumiņi trešdienā Raitis 13.50 1:03:31 04:42 12.75 ir
11/07/18 skrējiens vetrasputns 5.69 35:01 145 06:09 9.75 ir
11/07/18 Apļi Richa_K 10.52 49:34 163 04:42 12.73 ir
11/07/18 Skrējiens Kru 12.54 1:01:19 04:53 12.27 ir
11/07/18 Vakars und 4.00 22:54 05:43 10.48 ir
11/07/18 Pēc darba Mada 8.24 48:40 05:54 10.16 ir
11/07/18 Skrējiens PaulEdgecomb 7.10 40:29 05:42 10.52
11/07/18 Lēnām. Uldzha 4.78 42:44 08:56 6.71 ir
11/07/18 Shakeout run in Kirovsk runnerchick 5.00 26:23 122 05:16 11.37 ir
11/07/18 No autoservisa uz mājām nois 9.52 1:03:02 06:37 9.06 ir
11/07/18 Laba diena sākas ar skrējienu un beidzas ar dejām. aijuciiic 6.50 43:00 06:36 9.07 ir
11/07/18 Magnēts #44 Avotnieki 2.piegājiens Kris-tin 5.51 55:42 10:06 5.94 ir
11/07/18 Magnēts #44 Avotnieki (diskvalifikācija :( ) Kris-tin 6.35 1:19:18 12:29 4.80 ir
11/07/18 Magnēts #44 Avotnieki briediitc 5.62 1:02:37 144 11:08 5.39
11/07/18 ar basām kajām, max - 133 Aleks Kor 2.00 12:01 124 06:00 9.99
11/07/18 Bezjaudas faktors Jay-P 5.14 30:00 132 05:50 10.28 ir
11/07/18 Bajāri jurcha 12.04 1:13:29 126 06:06 9.83
11/07/18 mašīnu uz servisu ciks 13.00 1:17:11 05:56 10.11 ir
11/07/18 Skrējiens Wictoria 10.72 57:14 05:20 11.24 ir
11/07/18 60' pulsā forshais1 10.98 1:00:00 05:27 10.98 ir
11/07/18 Lēnais vakarā DK86 10.00 58:53 136 05:53 10.19 ir
11/07/18 Visa forma vējā skai-tlot-ajs 12.00 1:07:17 05:36 10.70 ir
11/07/18 192. vitaminka D 5.48 26:06 04:45 12.60 ir
11/07/18 Skrējiens MārcisB 6.25 36:54 05:54 10.16 ir
11/07/18 Skrējiens MārcisB 19.16 1:49:57 05:44 10.46 ir
11/07/18 Skrējiens xorix 5.04 27:20 05:25 11.06 ir
11/07/18 Skrējiens chunka 8.20 48:55 05:57 10.06 ir
11/07/18 116.treniņš Daiguciitis 10.84 1:14:32 06:52 8.73 ir
11/07/18 Stadiona treniņš anup 9.46 53:06 05:36 10.69 ir
11/07/18 Gatavojos pusmaratonam RobertsR 14.10 1:10:45 159 05:01 11.96 ir
11/07/18 Tetele Kazlēns 5.33 27:45 05:12 11.52
11/07/18 Divplākšņi - 264.koptreniņš topinjs 11.99 1:16:33 06:23 9.40 ir
11/07/18 Dzegužkalns; x10+x5 topinjs 12.59 1:04:13 05:06 11.76 ir
11/07/18 rīta maziņais uz darbu stjopachio 5.04 25:21 115 05:01 11.93 ir
11/07/18 rīta maziņais uz darbu (TP-2: l-c & k-A~) stjopachio 5.04 25:21 115 05:01 11.93 ir
11/07/18 64 arturs.locmelis 5.57 31:47 115 05:42 10.51 ir
11/07/18 vieglais fartleks DS93 22.00 1:35:00 04:19 13.89
11/07/18 Negaiss Ultralapsa 9.00 55:10 140 06:07 9.79 ir
11/07/18 # Elīna K 12.03 1:21:12 06:44 8.89 ir
11/07/18 +22 thunder man 9.17 54:04 119 05:53 10.18 ir
11/07/18 #Montreux Week 3 Pulsa 55' rubernmardom 10.55 55:48 120 05:17 11.34 ir
11/07/18 Čieris Ina 6.10 38:37 153 06:19 9.48 ir
11/07/18 Pa rajonu Geo 6.80 ir
11/07/18 Burtnieku novada skriešanas seriāls- Vecatē Laaurappeeterzone 9.01 43:04 04:46 12.55 ir
11/07/18 Iesildīšanās/ atsildīšanās Laaurappeeterzone 1.50 10:03 06:42 8.96 ir
11/07/18 19:52, apraksts Dziņa 10.60 1:06:48 151 06:18 9.52 ir
11/07/18 Ikšķiles stadions EdgarsBR 10.09 47:00 04:39 12.88 ir
11/07/18 V Trakais 10.80 47:17 04:22 13.70 ir
11/07/18 Treniņš Duuu-da 12.00 1:07:08 05:35 10.72 ir
11/07/18 skrejiens tomick 10.00 52:51 147 05:17 11.35 ir
11/07/18 Burtnieku novada apļi.Tikai puse no laika. kalnu_žubīte 4.81 26:13 178 05:27 11.01 ir
11/07/18 pa stadionu MK70 3.22 21:32 132 06:41 8.97 ir
11/07/18 Pūlsa treniņš Freelancer 12.21 1:09:26 126 05:41 10.55 ir
11/07/18 Skrējiens guntars.bumans 11.11 1:03:30 05:42 10.50
11/07/18 Orientēšanās karlos 1.00 12:00 12:00 5.00 ir
11/07/18 Skrējiens Azveja 9.17 1:10:38 07:42 7.79 ir
11/07/18 atjaunošanās Voldžiks 13.00 1:03:30 150 04:53 12.28 ir
11/07/18 lenta incl 4.0 IvarsRacins 5.36 30:00 05:35 10.72 ir
11/07/18 61 Guntis.Balodis 16.01 1:32:31 05:46 10.38
11/07/18 Skrējiens mtiger 9.05 43:00 143 04:45 12.63 ir
11/07/18 3diena Gatis.K 18.40 1:34:04 138 05:06 11.74 ir
11/07/18 Skrējiens experc 10.06 59:00 05:51 10.23 ir
11/07/18 Skrējiens pūcīte 5.22 31:58 06:07 9.80 ir
11/07/18 Skrējiens SandisC 6.79 37:03 05:27 11.00 ir
11/07/18 Skrējiens Jurgis_Klav 10.51 1:14:34 07:05 8.46
11/07/18 Skrējiens kalvicc94 12.39 1:00:01 04:50 12.39 ir
11/07/18 Skrējiens ricardsbalcis 4.06 25:20 06:14 9.62 ir
11/07/18 Skrējiens patizivs 4.71 29:16 06:12 9.66 ir
11/07/18 Skrējiens m.kalejs 5.31 30:40 05:46 10.39
11/07/18 Skrējiens ruducis 6.01 30:03 05:00 12.00
11/07/18 Skrējiens coffee 6.03 32:47 05:26 11.04 ir
11/07/18 Skrējiens Casperr 10.37 48:29 04:40 12.83 ir
11/07/18 Skrējiens andronkuls 10.74 57:43 05:22 11.16 ir
11/07/18 Skrējiens Bubu 17.03 1:27:30 05:08 11.68 ir
11/07/18 Skrējiens Janis_O 2.04 10:59 05:23 11.14 ir
11/07/18 Skrējiens Kaspars33 10.16 50:47 04:59 12.00 ir
11/07/18 Skrējiens rmamedov 10.03 57:51 05:46 10.40 ir
11/07/18 Lidosta (DHL ) - Imanta 4 Valdis.M 7.03 31:59 04:32 13.19 ir
11/07/18 Daugavpils Runners koptreniņš Prestons 10.01 59:01 146 05:53 10.18 ir
11/07/18 Skrējiens Kļavu Pēteris 14.67 1:09:28 04:44 12.67 ir
11/07/18 Skrējiens vaicis 10.22 1:05:46 06:26 9.32
11/07/18 Naktskoptreniņš ar Daugavpils runners Alice 10.01 1:03:23 06:19 9.48 ir
11/07/18 Skrējiens LindeM 8.08 46:16 05:43 10.48 ir
11/07/18 Skrējiens cheburs 10.02 59:49 05:58 10.05 ir
11/07/18 Skrējiens Rasmiks 2.50 18:56 07:34 7.92
11/07/18 Skrējiens Rasmiks 8.15 50:33 06:12 9.67
11/07/18 Skrējiens Janile 10.24 50:45 04:57 12.11
11/07/18 Skrējiens Arweed 8.66 44:15 05:06 11.74 ir
11/07/18 pulsa, pa mežu drafts 7.63 41:20 138 05:25 11.08 ir
11/07/18 Skrējiens agnijs 1.71 10:49 06:19 9.49
11/07/18 Skrējiens agnijs 1.67 10:21 06:11 9.68
11/07/18 Skrējiens Zigis 11.37 59:43 05:15 11.42
11/07/18 Skrējiens Ila_Kantī 1.54 09:57 06:27 9.29
11/07/18 W13Q2 anciite 10.00 58:43 05:52 10.22 ir
11/07/18 Skrējiens ezisskrien 15.54 1:18:38 05:03 11.86 ir
11/07/18 kopā ar vīru( pēdējie 3,3km tempa turēšana) mimite 11.13 1:16:09 142 06:50 8.77 ir
11/07/18 Skrējiens walker_j 3.47 35:59 10:22 5.79
11/07/18 Skrējiens PriekaPuļķis 10.89 55:08 05:03 11.85 ir
11/07/18 Skrējiens laurinaaaa 0.81 07:05 08:44 6.86 ir
11/07/18 Skrējiens laurinaaaa 0.59 02:17 03:52 15.50 ir
11/07/18 Skrējiens laurinaaaa 0.58 02:25 04:10 14.40 ir
11/07/18 Skrējiens laurinaaaa 2.01 18:18 09:06 6.59 ir
11/07/18 9.5km (3z2-3x(1z4/0.5z2)-2z2) MBirums 9.56 49:33 148 05:10 11.58 ir
11/07/18 Skrējiens Miegs 8.59 1:10:52 08:14 7.27
11/07/18 Skrējiens ccuguns 10.15 57:54 05:42 10.52 ir
11/07/18 Skrējiens Nix65 15.01 1:25:41 05:42 10.51 ir
11/07/18 Skrējiens Nix65 13.19 1:17:36 05:52 10.20 ir
11/07/18 11/07/2018 CheekyDevil 3.02 20:25 06:45 8.88 ir
11/07/18 Skrējiens KarlisIelejs 10.08 1:11:05 07:03 8.51
11/07/18 tempa treniņš nedēļas vidū.. galateja 9.67 1:00:40 06:16 9.56 ir
11/07/18 Skrējiens kika1993 15.61 1:40:49 06:27 9.29
11/07/18 Skrējiens Martins.Krumins 14.28 1:04:19 04:30 13.32 ir
11/07/18 Skrējiens rihardsf 0.64 04:35 07:09 8.38 ir
11/07/18 Skrējiens rihardsf 6.03 39:51 06:36 9.08 ir
11/07/18 Skrējiens JanJ 4.13 19:51 04:48 12.48
11/07/18 Skrējiens burunduks 5.08 33:36 06:36 9.07 ir
11/07/18 Jūrmalas parka veloceliņš KarlisBumans 10.00 58:58 138 05:53 10.18 ir
11/07/18 Trešdienas stadiona treniņš noris 10.52 54:51 05:12 11.51 ir
11/07/18 Vakars Santucio 6.00 47:00 07:50 7.66
11/07/18 Skrienlatvija189 Alvis D 13.00 55:03 04:14 14.17 ir
11/07/18 skrējiens guncha 10.00 45:57 142 04:35 13.06 ir
11/07/18 Trešdienas mierīgais Ginc 10.00 1:01:44 06:10 9.72 ir
11/07/18 Otdix mezhdu podhodami Tatjana1999 1.31 09:00 06:52 8.73
11/07/18 Piramida (2min-2min/1,5-1,5/1-1/30sek-30)*4 Tatjana1999 7.67 39:30 05:08 11.65
11/07/18 Razminka, zaminka piramidi Tatjana1999 3.77 23:06 06:07 9.79
11/07/18 Vajag mazliet paskriet Andris__Z 3.46 23:54 143 06:54 8.69 ir
11/07/18 Melnezers sergejs1 4.86 31:36 06:30 9.23 ir
11/07/18 Treniņš P vnkIndra 8.38 53:10 151 06:20 9.46 ir
11/07/18 Līdz Ziedoņiem un atpakaļ englishteacher 10.00 53:13 05:19 11.27 ir
11/07/18 plakanais basām Desperado 10.00 55:00 05:30 10.91 ir
11/07/18 gauja Janis Millers 10.07 54:00 05:21 11.19
11/07/18 kjj Janis Millers 6.43 33:05 05:08 11.66
11/07/18 jhjh Janis Millers 6.45 35:00 05:25 11.06
11/07/18 r Janis Millers 6.45 35:00 05:25 11.06
11/07/18 101. Didzis 11.33 1:18:54 06:57 8.62 ir
11/07/18 Jauks vakariņš Cassandra 12.25 1:08:37 05:36 10.71 ir
11/07/18 Vakara skrējiens Rupucis_ 10.17 57:19 143 05:38 10.65 ir
11/07/18 (81.0) pludmale Kampars 5.40 26:43 04:56 12.13
11/07/18 Pa meža ceļu Pičuks Dz 2.50 17:31 07:00 8.56
11/07/18 Vakara skrējiens Kiky 10.11 57:21 05:40 10.58 ir
11/07/18 Skrejiens pa mezu Superkaplis 3.01 19:29 160 06:28 9.27
11/07/18 (81.0) veloceliņš , iesild., 2x3km, atsild. Kampars 8.00 32:51 04:06 14.61
11/07/18 Treniņš Signis 14.70 1:17:50 05:17 11.33 ir
11/07/18 2018 zem 2:59:00 laacis1981 10.02 44:01 04:23 13.66 ir
11/07/18 Līdz Engures stadionam RimantsL 12.25 1:09:39 05:41 10.55 ir
11/07/18 Aiz metalurga gar ezeru spruuds 17.00 1:32:55 05:27 10.98 ir
11/07/18 Vakara +22 A3 ar saulīti, spēcīgu lietu Aldis B 4.56 29:01 193 06:21 9.44 ir
11/07/18 Skrējiens Jolis 20.02 1:45:48 05:17 11.35
11/07/18 nenotikusi vingrošana Ieva 4.00 32:33 136 08:08 7.37 ir
11/07/18 Skrējiens MartinsF 7.33 41:26 164 05:39 10.61 ir
11/07/18 MP otto 12.03 59:18 147 04:55 12.17 ir
11/07/18 10.39 km Andrisss 10.39 54:00 05:11 11.54 ir
11/07/18 run JānisV 5.05 25:11 126 04:59 12.03 ir
11/07/18 pirms futbola aKasIr 5.16 27:45 05:22 11.16 ir
11/07/18 Nometnieks Ilze1409 7.01
11/07/18 DP 264.kptr - sutā pār tiltiem. Hiēna 14.09 1:30:14 06:24 9.37 ir
11/07/18 Skrējiens garaissss 10.45 57:06 152 05:27 10.98 ir
11/07/18 Liepājā tropu vakars gskunstins 9.11 54:03 150 05:55 10.11 ir
11/07/18 Stadiona treniņš Māris91 13.80 1:20:00 144 05:47 10.35 ir
11/07/18 Dp 264. Rozamunde 10.31 1:12:00 06:59 8.59 ir
11/07/18 Intervāli Alarion 5.87 50:08 145 08:32 7.03 ir
11/07/18 Mežaparks alushox 11.39 1:00:03 136 05:16 11.38 ir
11/07/18 ] atpūtas (+271) cumulus 30.23 2:40:28 136 05:18 11.30 ir
11/07/18 Burtnieku novada apļi Vecatē Dina 7.01 41:12 172 05:52 10.21 ir
11/07/18 skrējiens 18-07/4 sturitis 8.74 47:09 151 05:23 11.12 ir
11/07/18 Skrējiens Lauris 11.41 1:22:33 132 07:14 8.29 ir
11/07/18 Divplākšņi Lasma3 12.00 1:23:57 164 06:59 8.58 ir
11/07/18 Trešdiena Ginchaa 17.05 1:38:09 133 05:45 10.42
11/07/18 Meža aplis savanna 10.68 1:01:15 05:44 10.46 ir
11/07/18 treniņš gintss 7.11 37:09 154 05:13 11.48
11/07/18 Vakara skrējiens ugis_v 10.00 54:23 147 05:26 11.03 ir
11/07/18 kross bunfunk 16.00 1:08:20 132 04:16 14.05
11/07/18 d-tilts viadukti bredato 9.20 48:17 143 05:14 11.43 ir
11/07/18 Asfalts Dzo 18.00 1:26:28 04:48 12.49 ir
11/07/18 asfalts kveks 10.00
11/07/18 Intervāli uldis15 9.50 49:43 05:14 11.46 ir
11/07/18 Trešdienis Sauļuks 10.99 1:00:48 05:31 10.85 ir
11/07/18 Magnēts 44#, Avotnieki LPD 8.44 1:13:34 153 08:42 6.88 ir
11/07/18 Vantaa Aivars 7.41 58:30 07:53 7.60 ir
11/07/18 Pa mežu DLK 3.44 20:01 05:49 10.31 ir
11/07/18 Skrējiens borga 9.51 52:30 146 05:31 10.87 ir
11/07/18 51 Mārtiņ š 10.04 52:11 05:11 11.54
11/07/18 Treniņš Nr.31 Ingus84 3.00 19:22 06:27 9.29 ir
11/07/18 Lēnākais skrējiens Naurītis 8.70 1:02:41 114 07:12 8.33 ir
11/07/18 Liepāja eddyboyz 10.47 1:18:22 135 07:29 8.02 ir
11/07/18 Ar suni (karsti) + prese BM + mug. ext. Csinipatas 13.67 1:10:35 05:09 11.62 ir
11/07/18 skrējiens Kalnu Dace 8.00 57:35 130 07:11 8.34 ir
11/07/18 Pilseta aicis 7.40 36:56 04:59 12.02 ir
11/07/18 Skrējiens 6.00 28:08 04:41 12.80 ir
11/07/18 Rīta skrējiens JanisSkrien 12.00 1:08:49 147 05:44 10.46 ir
11/07/18 tren. Girts76 10.00 56:29 05:38 10.62 ir
11/07/18 Čingonu Estrādē meklējoti (15h/56) matiss 13.88 1:16:00 113 05:28 10.96 ir
11/07/18 Stadions Chuncha 10.00 56:41 05:40 10.59 ir
11/07/18 Lēnā garā, līku loču uz Saldus ezeru nopeldēties.Km pietrūka, bet pelde super :-) Gīča 12.00 1:00:43 143 05:03 11.86 ir
11/07/18 ar Kristīni, Dienvidnieks, Salu tilts EK1983 10.18 1:05:15 172 06:24 9.36 ir
11/07/18 9:00 Sporta laboratorijas slodzes tests GačusSkrunda 6.30 32:00 171 05:04 11.81 ir
11/07/18 rits und 7.01 38:58 05:33 10.79 ir
11/07/18 Skrējiens johaidi 7.15 37:50 05:17 11.34 ir
11/07/18 Skrējiens zandarts 8.40 51:33 135 06:08 9.78 ir
11/07/18 Skrējiens VilnisV 4.01 27:46 06:55 8.67 ir
11/07/18 Skrējiens LEICHA 4.27 31:14 07:18 8.20
11/07/18 Skrējiens KarīnaK 9.01 50:38 05:37 10.68 ir
11/07/18 Skrējiens Miezers 12.12 1:09:53 05:45 10.41 ir
11/07/18 rīta pikols 10.59 1:11:44 06:46 8.86 ir
11/07/18 Imanta 4 - Lidosta (DHL) Valdis.M 6.25 28:58 04:38 12.95 ir
11/07/18 Skrējiens BGIRTS 11.43 1:03:42 170 05:34 10.77 ir
11/07/18 Skrējiens Ievinja 8.67 1:01:18 07:04 8.49 ir
11/07/18 Skrējiens RaitisR 10.29 57:12 05:33 10.79 ir
11/07/18 Skrējiens vitjka 9.17 43:23 04:43 12.68 ir
11/07/18 Skrējiens Aya 5.66 50:56 08:59 6.67
11/07/18 Skrējiens lerychv 9.11 52:55 116 05:48 10.33 ir
11/07/18 Skrējiens art.is 1.00 05:43 05:43 10.50 ir
11/07/18 Skrējiens art.is 10.50 57:51 05:30 10.89 ir
11/07/18 7:20 Pludmale (+18)(72.8) unknown 8.52 51:14 143 06:00 9.98
11/07/18 Ar migliņu un zirnekļatīkliem Renee 9.01 54:25 148 06:02 9.93 ir
11/07/18 Skrējiens IneJer 8.14 47:34 05:50 10.27
11/07/18 Rovinjas treils, pilsētas treils! Huch 11.02 57:28 05:12 11.51 ir
11/07/18 Skrējiens lerychv 1.68 10:58 06:31 9.19
11/07/18 126.3.3. JurBer 11.18 1:19:38 138 07:07 8.42 ir
11/07/18 Running Aivysuperman 6.04 31:27 147 05:12 11.52 ir
11/07/18 no rīta 17*, pasaules šokolādes diena JK 1.60 11:40 07:17 8.23 ir
11/07/18 Pēc stadiona vingrisanas mazie sprinti 4seti: 1min leni, 30s sprints utt.  Gīča 2.00 08:15 144 04:07 14.55
11/07/18 īsa pelde, jo bebrs dzen ārā no karjera Sanča_Ro 9.00 1:04:48 116 07:12 8.33 ir
11/07/18 Rīts, +15 jurdoms 5.02 32:38 06:30 9.23 ir
11/07/18 Rīts OreMan 5.60 30:42 05:28 10.94 ir
11/07/18 Rīta skrējiens Ize_De 7.19 49:31 06:53 8.71 ir
11/07/18 Rīta riksis uldis15 8.00 46:36 05:49 10.30 ir